Time,TemperatureF,DewpointF,PressureIn,WindDirection,WindDirectionDegrees,WindSpeedMPH,WindSpeedGustMPH,Humidity,HourlyPrecipIn,Conditions,Clouds,dailyrainin,SoftwareType,DateUTC
2013-04-11 00:00:00,69.9,57.2,29.77,East,79,0.0,0.0,64,0.00,,---,0.00,VWS V14.01,2013-04-11 04:00:00,
2013-04-11 00:01:00,69.9,57.2,29.77,ENE,78,0.0,0.0,64,0.00,,---,0.00,VWS V14.01,2013-04-11 04:01:00,
2013-04-11 00:02:00,69.8,57.1,29.77,ENE,78,0.0,0.0,64,0.00,,---,0.00,VWS V14.01,2013-04-11 04:02:00,
2013-04-11 00:03:00,69.8,57.1,29.77,SSE,152,0.0,1.0,64,0.00,,---,0.00,VWS V14.01,2013-04-11 04:03:00,
2013-04-11 00:04:00,69.8,57.1,29.77,SSE,152,0.0,0.0,64,0.00,,---,0.00,VWS V14.01,2013-04-11 04:04:00,
2013-04-11 00:05:00,69.8,57.1,29.77,SSE,152,0.0,0.0,64,0.00,,---,0.00,VWS V14.01,2013-04-11 04:05:00,
2013-04-11 00:06:00,69.7,57.0,29.77,SSE,147,0.0,0.0,64,0.00,,---,0.00,VWS V14.01,2013-04-11 04:06:00,
2013-04-11 00:07:00,69.8,57.1,29.77,SSE,149,0.0,1.0,64,0.00,,---,0.00,VWS V14.01,2013-04-11 04:07:00,
2013-04-11 00:08:00,69.8,57.1,29.77,ENE,75,1.0,2.0,64,0.00,,---,0.00,VWS V14.01,2013-04-11 04:08:00,
2013-04-11 00:09:00,69.8,57.1,29.77,SE,128,1.0,2.0,64,0.00,,---,0.00,VWS V14.01,2013-04-11 04:09:00,
2013-04-11 00:10:00,69.8,57.1,29.77,East,84,0.0,1.0,64,0.00,,---,0.00,VWS V14.01,2013-04-11 04:10:00,
2013-04-11 00:11:00,69.9,57.2,29.77,SE,131,0.0,1.0,64,0.00,,---,0.00,VWS V14.01,2013-04-11 04:11:00,
2013-04-11 00:12:00,69.9,57.2,29.77,SE,131,0.0,0.0,64,0.00,,---,0.00,VWS V14.01,2013-04-11 04:12:00,
2013-04-11 00:13:00,69.9,57.2,29.77,SE,129,0.0,0.0,64,0.00,,---,0.00,VWS V14.01,2013-04-11 04:13:00,
2013-04-11 00:14:00,69.9,57.2,29.77,SE,129,0.0,0.0,64,0.00,,---,0.00,VWS V14.01,2013-04-11 04:14:00,
2013-04-11 00:15:00,69.8,57.1,29.77,ESE,111,0.0,0.0,64,0.00,,---,0.00,VWS V14.01,2013-04-11 04:15:00,
2013-04-11 00:16:00,69.8,57.1,29.77,ESE,102,0.0,0.0,64,0.00,,---,0.00,VWS V14.01,2013-04-11 04:16:00,
2013-04-11 00:17:00,69.8,57.1,29.77,ESE,105,0.0,1.0,64,0.00,,---,0.00,VWS V14.01,2013-04-11 04:17:00,
2013-04-11 00:18:00,69.7,57.0,29.77,ESE,106,0.0,0.0,64,0.00,,---,0.00,VWS V14.01,2013-04-11 04:18:00,
2013-04-11 00:19:00,69.7,57.0,29.77,SE,140,0.0,0.0,64,0.00,,---,0.00,VWS V14.01,2013-04-11 04:19:00,
2013-04-11 00:20:00,69.7,57.0,29.77,SE,140,0.0,0.0,64,0.00,,---,0.00,VWS V14.01,2013-04-11 04:20:00,
2013-04-11 00:21:00,69.7,57.0,29.77,ESE,122,1.0,2.0,64,0.00,,---,0.00,VWS V14.01,2013-04-11 04:21:00,
2013-04-11 00:22:00,69.7,57.0,29.76,ESE,115,0.0,1.0,64,0.00,,---,0.00,VWS V14.01,2013-04-11 04:22:00,
2013-04-11 00:23:00,69.7,57.0,29.76,ESE,111,0.0,1.0,64,0.00,,---,0.00,VWS V14.01,2013-04-11 04:23:00,
2013-04-11 00:24:00,69.7,57.0,29.76,ESE,110,0.0,0.0,64,0.00,,---,0.00,VWS V14.01,2013-04-11 04:24:00,
2013-04-11 00:25:00,69.7,57.0,29.76,ESE,108,0.0,0.0,64,0.00,,---,0.00,VWS V14.01,2013-04-11 04:25:00,
2013-04-11 00:26:00,69.7,57.0,29.76,SSE,149,0.0,0.0,64,0.00,,---,0.00,VWS V14.01,2013-04-11 04:26:00,
2013-04-11 00:27:00,69.6,56.9,29.76,SE,124,0.0,3.0,64,0.00,,---,0.00,VWS V14.01,2013-04-11 04:27:00,
2013-04-11 00:28:00,69.6,56.9,29.76,East,90,2.0,2.0,64,0.00,,---,0.00,VWS V14.01,2013-04-11 04:28:00,
2013-04-11 00:29:00,69.7,57.0,29.76,SSE,150,0.0,2.0,64,0.00,,---,0.00,VWS V14.01,2013-04-11 04:29:00,
2013-04-11 00:30:00,69.7,57.0,29.76,SSE,150,0.0,0.0,64,0.00,,---,0.00,VWS V14.01,2013-04-11 04:30:00,
2013-04-11 00:31:00,69.7,57.0,29.76,ENE,74,0.0,1.0,64,0.00,,---,0.00,VWS V14.01,2013-04-11 04:31:00,
2013-04-11 00:32:00,69.7,57.0,29.76,ESE,114,0.0,1.0,64,0.00,,---,0.00,VWS V14.01,2013-04-11 04:32:00,
2013-04-11 00:33:00,69.7,57.0,29.76,ENE,78,2.0,2.0,64,0.00,,---,0.00,VWS V14.01,2013-04-11 04:33:00,
2013-04-11 00:34:00,69.7,57.0,29.76,SE,136,1.0,2.0,64,0.00,,---,0.00,VWS V14.01,2013-04-11 04:34:00,
2013-04-11 00:35:00,69.7,57.0,29.76,SSE,155,1.0,3.0,64,0.00,,---,0.00,VWS V14.01,2013-04-11 04:35:00,
2013-04-11 00:36:00,69.7,57.0,29.76,ESE,119,0.0,1.0,64,0.00,,---,0.00,VWS V14.01,2013-04-11 04:36:00,
2013-04-11 00:37:00,69.7,57.0,29.75,East,94,0.0,1.0,64,0.00,,---,0.00,VWS V14.01,2013-04-11 04:37:00,
2013-04-11 00:38:00,69.7,57.0,29.75,East,96,0.0,0.0,64,0.00,,---,0.00,VWS V14.01,2013-04-11 04:38:00,
2013-04-11 00:39:00,69.7,57.0,29.76,SE,143,1.0,2.0,64,0.00,,---,0.00,VWS V14.01,2013-04-11 04:39:00,
2013-04-11 00:40:00,69.7,57.0,29.76,SE,144,0.0,1.0,64,0.00,,---,0.00,VWS V14.01,2013-04-11 04:40:00,
2013-04-11 00:41:00,69.7,57.0,29.76,ESE,121,0.0,1.0,64,0.00,,---,0.00,VWS V14.01,2013-04-11 04:41:00,
2013-04-11 00:42:00,69.7,57.0,29.76,South,169,2.0,2.0,64,0.00,,---,0.00,VWS V14.01,2013-04-11 04:42:00,
2013-04-11 00:43:00,69.6,56.9,29.76,South,191,0.0,1.0,64,0.00,,---,0.00,VWS V14.01,2013-04-11 04:43:00,
2013-04-11 00:44:00,69.6,56.9,29.76,SE,132,1.0,2.0,64,0.00,,---,0.00,VWS V14.01,2013-04-11 04:44:00,
2013-04-11 00:45:00,69.6,56.9,29.76,South,169,0.0,2.0,64,0.00,,---,0.00,VWS V14.01,2013-04-11 04:45:00,
2013-04-11 00:46:00,69.6,56.9,29.76,SE,145,0.0,1.0,64,0.00,,---,0.00,VWS V14.01,2013-04-11 04:46:00,
2013-04-11 00:47:00,69.6,56.9,29.76,SW,218,1.0,1.0,64,0.00,,---,0.00,VWS V14.01,2013-04-11 04:47:00,
2013-04-11 00:48:00,69.6,56.9,29.76,ESE,106,0.0,3.0,64,0.00,,---,0.00,VWS V14.01,2013-04-11 04:48:00,
2013-04-11 00:49:00,69.6,56.9,29.76,SSE,152,2.0,3.0,64,0.00,,---,0.00,VWS V14.01,2013-04-11 04:49:00,
2013-04-11 00:50:00,69.6,56.9,29.76,SE,129,0.0,2.0,64,0.00,,---,0.00,VWS V14.01,2013-04-11 04:50:00,
2013-04-11 00:51:00,69.6,56.9,29.76,ESE,119,0.0,2.0,64,0.00,,---,0.00,VWS V14.01,2013-04-11 04:51:00,
2013-04-11 00:52:00,69.6,56.9,29.76,SE,143,1.0,1.0,64,0.00,,---,0.00,VWS V14.01,2013-04-11 04:52:00,
2013-04-11 00:53:00,69.5,56.8,29.77,SE,134,0.0,1.0,64,0.00,,---,0.00,VWS V14.01,2013-04-11 04:53:00,
2013-04-11 00:54:00,69.5,56.8,29.77,SE,136,1.0,1.0,64,0.00,,---,0.00,VWS V14.01,2013-04-11 04:54:00,
2013-04-11 00:55:00,69.5,56.8,29.77,South,186,1.0,4.0,64,0.00,,---,0.00,VWS V14.01,2013-04-11 04:55:00,
2013-04-11 00:56:00,69.5,56.8,29.77,South,188,1.0,2.0,64,0.00,,---,0.00,VWS V14.01,2013-04-11 04:56:00,
2013-04-11 00:57:00,69.5,56.8,29.77,SE,138,0.0,1.0,64,0.00,,---,0.00,VWS V14.01,2013-04-11 04:57:00,
2013-04-11 00:58:00,69.5,56.8,29.77,SE,146,2.0,2.0,64,0.00,,---,0.00,VWS V14.01,2013-04-11 04:58:00,
2013-04-11 00:59:00,69.5,56.8,29.77,East,96,2.0,3.0,64,0.00,,---,0.00,VWS V14.01,2013-04-11 04:59:00,
2013-04-11 01:00:00,69.5,56.8,29.77,East,98,0.0,2.0,64,0.00,,---,0.00,VWS V14.01,2013-04-11 05:00:00,
2013-04-11 01:01:00,69.6,56.9,29.77,East,95,2.0,2.0,64,0.00,,---,0.00,VWS V14.01,2013-04-11 05:01:00,
2013-04-11 01:02:00,69.6,56.9,29.77,SE,140,1.0,5.0,64,0.00,,---,0.00,VWS V14.01,2013-04-11 05:02:00,
2013-04-11 01:03:00,69.6,56.9,29.77,SE,136,1.0,2.0,64,0.00,,---,0.00,VWS V14.01,2013-04-11 05:03:00,
2013-04-11 01:04:00,69.7,57.0,29.77,SSE,155,1.0,2.0,64,0.00,,---,0.00,VWS V14.01,2013-04-11 05:04:00,
2013-04-11 01:05:00,69.7,57.0,29.77,SE,141,0.0,2.0,64,0.00,,---,0.00,VWS V14.01,2013-04-11 05:05:00,
2013-04-11 01:06:00,69.7,56.6,29.77,SSE,149,1.0,4.0,63,0.00,,---,0.00,VWS V14.01,2013-04-11 05:06:00,
2013-04-11 01:07:00,69.7,56.6,29.77,ESE,119,1.0,2.0,63,0.00,,---,0.00,VWS V14.01,2013-04-11 05:07:00,
2013-04-11 01:08:00,69.8,56.7,29.77,SE,140,1.0,1.0,63,0.00,,---,0.00,VWS V14.01,2013-04-11 05:08:00,
2013-04-11 01:09:00,69.9,56.7,29.77,NE,40,0.0,2.0,63,0.00,,---,0.00,VWS V14.01,2013-04-11 05:09:00,
2013-04-11 01:10:00,69.8,56.7,29.77,NE,40,0.0,0.0,63,0.00,,---,0.00,VWS V14.01,2013-04-11 05:10:00,
2013-04-11 01:11:00,69.9,56.7,29.77,SSE,155,1.0,1.0,63,0.00,,---,0.00,VWS V14.01,2013-04-11 05:11:00,
2013-04-11 01:12:00,69.8,56.7,29.77,ESE,112,1.0,2.0,63,0.00,,---,0.00,VWS V14.01,2013-04-11 05:12:00,
2013-04-11 01:13:00,69.8,56.7,29.77,East,94,0.0,1.0,63,0.00,,---,0.00,VWS V14.01,2013-04-11 05:13:00,
2013-04-11 01:14:00,69.8,56.7,29.77,SE,127,0.0,2.0,63,0.00,,---,0.00,VWS V14.01,2013-04-11 05:14:00,
2013-04-11 01:15:00,69.8,56.7,29.77,SE,139,2.0,2.0,63,0.00,,---,0.00,VWS V14.01,2013-04-11 05:15:00,
2013-04-11 01:16:00,69.8,56.7,29.77,ESE,111,1.0,2.0,63,0.00,,---,0.00,VWS V14.01,2013-04-11 05:16:00,
2013-04-11 01:17:00,69.8,56.7,29.77,East,93,1.0,1.0,63,0.00,,---,0.00,VWS V14.01,2013-04-11 05:17:00,
2013-04-11 01:18:00,69.8,56.7,29.77,SE,132,0.0,1.0,63,0.00,,---,0.00,VWS V14.01,2013-04-11 05:18:00,
2013-04-11 01:19:00,69.8,56.7,29.76,SE,129,0.0,0.0,63,0.00,,---,0.00,VWS V14.01,2013-04-11 05:19:00,
2013-04-11 01:20:00,69.8,56.7,29.76,SE,125,0.0,0.0,63,0.00,,---,0.00,VWS V14.01,2013-04-11 05:20:00,
2013-04-11 01:21:00,69.7,56.6,29.76,SE,124,0.0,0.0,63,0.00,,---,0.00,VWS V14.01,2013-04-11 05:21:00,
2013-04-11 01:22:00,69.7,56.6,29.76,SE,125,0.0,0.0,63,0.00,,---,0.00,VWS V14.01,2013-04-11 05:22:00,
2013-04-11 01:23:00,69.7,56.6,29.76,SE,143,1.0,1.0,63,0.00,,---,0.00,VWS V14.01,2013-04-11 05:23:00,
2013-04-11 01:24:00,69.6,56.5,29.76,ESE,115,1.0,2.0,63,0.00,,---,0.00,VWS V14.01,2013-04-11 05:24:00,
2013-04-11 01:25:00,69.7,56.6,29.76,SE,140,3.0,3.0,63,0.00,,---,0.00,VWS V14.01,2013-04-11 05:25:00,
2013-04-11 01:26:00,69.7,56.6,29.76,ESE,119,0.0,2.0,63,0.00,,---,0.00,VWS V14.01,2013-04-11 05:26:00,
2013-04-11 01:27:00,69.7,56.6,29.76,East,91,0.0,1.0,63,0.00,,---,0.00,VWS V14.01,2013-04-11 05:27:00,
2013-04-11 01:28:00,69.7,56.6,29.76,ESE,104,0.0,1.0,63,0.00,,---,0.00,VWS V14.01,2013-04-11 05:28:00,
2013-04-11 01:29:00,69.7,56.6,29.76,East,79,1.0,2.0,63,0.00,,---,0.00,VWS V14.01,2013-04-11 05:29:00,
2013-04-11 01:30:00,69.7,56.6,29.75,SE,124,1.0,2.0,63,0.00,,---,0.00,VWS V14.01,2013-04-11 05:30:00,
2013-04-11 01:31:00,69.8,56.7,29.75,East,95,1.0,2.0,63,0.00,,---,0.00,VWS V14.01,2013-04-11 05:31:00,
2013-04-11 01:32:00,69.8,56.7,29.75,SE,131,0.0,2.0,63,0.00,,---,0.00,VWS V14.01,2013-04-11 05:32:00,
2013-04-11 01:33:00,69.8,56.7,29.75,ESE,119,2.0,2.0,63,0.00,,---,0.00,VWS V14.01,2013-04-11 05:33:00,
2013-04-11 01:34:00,69.8,56.7,29.75,ESE,115,1.0,3.0,63,0.00,,---,0.00,VWS V14.01,2013-04-11 05:34:00,
2013-04-11 01:35:00,69.8,56.7,29.75,East,101,1.0,1.0,63,0.00,,---,0.00,VWS V14.01,2013-04-11 05:35:00,
2013-04-11 01:36:00,69.8,56.7,29.75,ESE,105,0.0,1.0,63,0.00,,---,0.00,VWS V14.01,2013-04-11 05:36:00,
2013-04-11 01:37:00,69.9,56.7,29.75,ESE,114,1.0,1.0,63,0.00,,---,0.00,VWS V14.01,2013-04-11 05:37:00,
2013-04-11 01:38:00,69.8,56.7,29.75,ESE,114,0.0,1.0,63,0.00,,---,0.00,VWS V14.01,2013-04-11 05:38:00,
2013-04-11 01:39:00,69.8,56.7,29.75,ESE,114,0.0,0.0,63,0.00,,---,0.00,VWS V14.01,2013-04-11 05:39:00,
2013-04-11 01:40:00,69.8,56.7,29.75,ESE,114,0.0,0.0,63,0.00,,---,0.00,VWS V14.01,2013-04-11 05:40:00,
2013-04-11 01:41:00,69.7,56.6,29.75,SE,146,0.0,2.0,63,0.00,,---,0.00,VWS V14.01,2013-04-11 05:41:00,
2013-04-11 01:42:00,69.7,56.6,29.75,ESE,106,0.0,0.0,63,0.00,,---,0.00,VWS V14.01,2013-04-11 05:42:00,
2013-04-11 01:43:00,69.6,56.5,29.75,SE,128,0.0,1.0,63,0.00,,---,0.00,VWS V14.01,2013-04-11 05:43:00,
2013-04-11 01:44:00,69.6,56.5,29.75,SE,128,0.0,0.0,63,0.00,,---,0.00,VWS V14.01,2013-04-11 05:44:00,
2013-04-11 01:45:00,69.5,56.4,29.75,SE,133,0.0,0.0,63,0.00,,---,0.00,VWS V14.01,2013-04-11 05:45:00,
2013-04-11 01:46:00,69.4,56.7,29.75,SSW,212,0.0,2.0,64,0.00,,---,0.00,VWS V14.01,2013-04-11 05:46:00,
2013-04-11 01:48:00,69.3,56.6,29.74,SSE,152,0.0,2.0,64,0.00,,---,0.00,VWS V14.01,2013-04-11 05:48:00,
2013-04-11 01:49:00,69.3,56.6,29.74,East,89,0.0,4.0,64,0.00,,---,0.00,VWS V14.01,2013-04-11 05:49:00,
2013-04-11 01:50:00,69.3,56.6,29.74,East,89,0.0,0.0,64,0.00,,---,0.00,VWS V14.01,2013-04-11 05:50:00,
2013-04-11 01:51:00,69.3,56.6,29.74,SE,132,0.0,0.0,64,0.00,,---,0.00,VWS V14.01,2013-04-11 05:51:00,
2013-04-11 01:52:00,69.3,56.6,29.74,ENE,78,0.0,1.0,64,0.00,,---,0.00,VWS V14.01,2013-04-11 05:52:00,
2013-04-11 01:53:00,69.3,56.6,29.74,ESE,122,1.0,4.0,64,0.00,,---,0.00,VWS V14.01,2013-04-11 05:53:00,
2013-04-11 01:54:00,69.3,56.6,29.74,SE,127,1.0,2.0,64,0.00,,---,0.00,VWS V14.01,2013-04-11 05:54:00,
2013-04-11 01:55:00,69.3,56.6,29.74,SE,128,0.0,1.0,64,0.00,,---,0.00,VWS V14.01,2013-04-11 05:55:00,
2013-04-11 01:56:00,69.4,56.7,29.74,ESE,104,1.0,1.0,64,0.00,,---,0.00,VWS V14.01,2013-04-11 05:56:00,
2013-04-11 01:57:00,69.4,56.7,29.74,East,92,1.0,1.0,64,0.00,,---,0.00,VWS V14.01,2013-04-11 05:57:00,
2013-04-11 01:58:00,69.4,56.7,29.74,ESE,104,0.0,1.0,64,0.00,,---,0.00,VWS V14.01,2013-04-11 05:58:00,
2013-04-11 01:59:00,69.4,56.7,29.74,SSW,195,1.0,1.0,64,0.00,,---,0.00,VWS V14.01,2013-04-11 05:59:00,
2013-04-11 02:00:00,69.3,56.6,29.74,SE,132,0.0,2.0,64,0.00,,---,0.00,VWS V14.01,2013-04-11 06:00:00,
2013-04-11 02:01:00,69.3,56.6,29.73,ESE,123,0.0,1.0,64,0.00,,---,0.00,VWS V14.01,2013-04-11 06:01:00,
2013-04-11 02:02:00,69.4,56.7,29.73,SE,128,1.0,1.0,64,0.00,,---,0.00,VWS V14.01,2013-04-11 06:02:00,
2013-04-11 02:03:00,69.4,56.7,29.73,SE,132,2.0,2.0,64,0.00,,---,0.00,VWS V14.01,2013-04-11 06:03:00,
2013-04-11 02:04:00,69.4,56.7,29.73,East,83,2.0,5.0,64,0.00,,---,0.00,VWS V14.01,2013-04-11 06:04:00,
2013-04-11 02:05:00,69.4,56.3,29.73,ESE,110,4.0,4.0,63,0.00,,---,0.00,VWS V14.01,2013-04-11 06:05:00,
2013-04-11 02:06:00,69.6,56.5,29.73,ESE,111,4.0,6.0,63,0.00,,---,0.00,VWS V14.01,2013-04-11 06:06:00,
2013-04-11 02:07:00,69.7,56.6,29.72,East,93,8.0,8.0,63,0.00,,---,0.00,VWS V14.01,2013-04-11 06:07:00,
2013-04-11 02:08:00,69.9,56.7,29.72,ESE,123,7.0,8.0,63,0.00,,---,0.00,VWS V14.01,2013-04-11 06:08:00,
2013-04-11 02:09:00,70.1,56.5,29.72,ESE,108,3.0,7.0,62,0.00,,---,0.00,VWS V14.01,2013-04-11 06:09:00,
2013-04-11 02:10:00,70.1,56.5,29.71,SE,140,3.0,5.0,62,0.00,,---,0.00,VWS V14.01,2013-04-11 06:10:00,
2013-04-11 02:11:00,70.2,56.6,29.71,SE,140,3.0,4.0,62,0.00,,---,0.00,VWS V14.01,2013-04-11 06:11:00,
2013-04-11 02:12:00,70.2,56.6,29.71,East,82,2.0,5.0,62,0.00,,---,0.00,VWS V14.01,2013-04-11 06:12:00,
2013-04-11 02:13:00,70.3,56.7,29.72,East,83,1.0,5.0,62,0.00,,---,0.00,VWS V14.01,2013-04-11 06:13:00,
2013-04-11 02:14:00,70.3,56.7,29.72,ESE,108,1.0,2.0,62,0.00,,---,0.00,VWS V14.01,2013-04-11 06:14:00,
2013-04-11 02:15:00,70.3,56.7,29.72,SE,138,1.0,1.0,62,0.00,,---,0.00,VWS V14.01,2013-04-11 06:15:00,
2013-04-11 02:16:00,70.3,56.7,29.72,ESE,123,1.0,4.0,62,0.00,,---,0.00,VWS V14.01,2013-04-11 06:16:00,
2013-04-11 02:17:00,70.3,56.7,29.72,SE,124,0.0,1.0,62,0.00,,---,0.00,VWS V14.01,2013-04-11 06:17:00,
2013-04-11 02:18:00,70.3,56.7,29.73,SSW,194,2.0,4.0,62,0.00,,---,0.00,VWS V14.01,2013-04-11 06:18:00,
2013-04-11 02:19:00,70.2,56.6,29.73,SE,136,0.0,0.0,62,0.00,,---,0.00,VWS V14.01,2013-04-11 06:19:00,
2013-04-11 02:20:00,70.2,56.6,29.73,SE,130,1.0,1.0,62,0.00,,---,0.00,VWS V14.01,2013-04-11 06:20:00,
2013-04-11 02:21:00,70.2,56.6,29.73,ESE,112,0.0,4.0,62,0.00,,---,0.00,VWS V14.01,2013-04-11 06:21:00,
2013-04-11 02:22:00,70.1,56.5,29.73,SE,145,1.0,4.0,62,0.00,,---,0.00,VWS V14.01,2013-04-11 06:22:00,
2013-04-11 02:23:00,70.1,56.5,29.73,WSW,242,4.0,4.0,62,0.00,,---,0.00,VWS V14.01,2013-04-11 06:23:00,
2013-04-11 02:24:00,70.1,56.5,29.73,SSE,152,0.0,2.0,62,0.00,,---,0.00,VWS V14.01,2013-04-11 06:24:00,
2013-04-11 02:25:00,70.2,56.6,29.73,SSE,153,0.0,2.0,62,0.00,,---,0.00,VWS V14.01,2013-04-11 06:25:00,
2013-04-11 02:26:00,70.2,56.6,29.73,SSE,150,0.0,0.0,62,0.00,,---,0.00,VWS V14.01,2013-04-11 06:26:00,
2013-04-11 02:27:00,70.2,56.6,29.73,SE,124,0.0,2.0,62,0.00,,---,0.00,VWS V14.01,2013-04-11 06:27:00,
2013-04-11 02:28:00,70.1,56.5,29.73,SE,125,0.0,0.0,62,0.00,,---,0.00,VWS V14.01,2013-04-11 06:28:00,
2013-04-11 02:29:00,70.1,56.5,29.73,East,85,1.0,1.0,62,0.00,,---,0.00,VWS V14.01,2013-04-11 06:29:00,
2013-04-11 02:30:00,70.1,56.5,29.73,NE,45,0.0,1.0,62,0.00,,---,0.00,VWS V14.01,2013-04-11 06:30:00,
2013-04-11 02:31:00,70.1,56.9,29.73,SW,228,0.0,1.0,63,0.00,,---,0.00,VWS V14.01,2013-04-11 06:31:00,
2013-04-11 02:32:00,70.1,56.9,29.73,SE,137,0.0,0.0,63,0.00,,---,0.00,VWS V14.01,2013-04-11 06:32:00,
2013-04-11 02:33:00,70.0,56.8,29.73,WNW,298,0.0,1.0,63,0.00,,---,0.00,VWS V14.01,2013-04-11 06:33:00,
2013-04-11 02:34:00,69.9,56.8,29.73,South,169,3.0,3.0,63,0.00,,---,0.00,VWS V14.01,2013-04-11 06:34:00,
2013-04-11 02:35:00,69.9,56.7,29.73,SSE,165,0.0,3.0,63,0.00,,---,0.00,VWS V14.01,2013-04-11 06:35:00,
2013-04-11 02:36:00,69.8,56.7,29.73,SSW,201,0.0,1.0,63,0.00,,---,0.00,VWS V14.01,2013-04-11 06:36:00,
2013-04-11 02:37:00,69.7,56.6,29.73,SSE,157,2.0,2.0,63,0.00,,---,0.00,VWS V14.01,2013-04-11 06:37:00,
2013-04-11 02:38:00,69.7,56.6,29.73,SSW,204,0.0,2.0,63,0.00,,---,0.00,VWS V14.01,2013-04-11 06:38:00,
2013-04-11 02:39:00,69.7,56.6,29.73,SSW,204,0.0,0.0,63,0.00,,---,0.00,VWS V14.01,2013-04-11 06:39:00,
2013-04-11 02:40:00,69.7,56.6,29.73,SE,140,2.0,2.0,63,0.00,,---,0.00,VWS V14.01,2013-04-11 06:40:00,
2013-04-11 02:41:00,69.6,56.5,29.73,East,101,0.0,2.0,63,0.00,,---,0.00,VWS V14.01,2013-04-11 06:41:00,
2013-04-11 02:42:00,69.6,56.5,29.73,SE,131,1.0,1.0,63,0.00,,---,0.00,VWS V14.01,2013-04-11 06:42:00,
2013-04-11 02:43:00,69.6,56.5,29.73,ESE,118,0.0,1.0,63,0.00,,---,0.00,VWS V14.01,2013-04-11 06:43:00,
2013-04-11 02:44:00,69.5,56.8,29.73,ESE,114,0.0,0.0,64,0.00,,---,0.00,VWS V14.01,2013-04-11 06:44:00,
2013-04-11 02:45:00,69.5,56.8,29.73,SSE,157,3.0,3.0,64,0.00,,---,0.00,VWS V14.01,2013-04-11 06:45:00,
2013-04-11 02:46:00,69.4,56.7,29.73,SSE,157,0.0,4.0,64,0.00,,---,0.00,VWS V14.01,2013-04-11 06:46:00,
2013-04-11 02:47:00,69.4,56.7,29.73,SE,127,0.0,1.0,64,0.00,,---,0.00,VWS V14.01,2013-04-11 06:47:00,
2013-04-11 02:48:00,69.4,56.7,29.73,SE,128,0.0,0.0,64,0.00,,---,0.00,VWS V14.01,2013-04-11 06:48:00,
2013-04-11 02:49:00,69.3,56.6,29.73,SE,128,0.0,0.0,64,0.00,,---,0.00,VWS V14.01,2013-04-11 06:49:00,
2013-04-11 02:50:00,69.3,56.6,29.73,SE,129,0.0,0.0,64,0.00,,---,0.00,VWS V14.01,2013-04-11 06:50:00,
2013-04-11 02:51:00,69.2,56.5,29.73,SE,130,0.0,0.0,64,0.00,,---,0.00,VWS V14.01,2013-04-11 06:51:00,
2013-04-11 02:52:00,69.1,56.4,29.73,SE,129,0.0,0.0,64,0.00,,---,0.00,VWS V14.01,2013-04-11 06:52:00,
2013-04-11 02:53:00,69.1,56.4,29.73,SE,129,0.0,0.0,64,0.00,,---,0.00,VWS V14.01,2013-04-11 06:53:00,
2013-04-11 02:54:00,69.0,56.8,29.73,SSW,209,0.0,1.0,65,0.00,,---,0.00,VWS V14.01,2013-04-11 06:54:00,
2013-04-11 02:55:00,69.0,56.8,29.73,SSW,208,0.0,1.0,65,0.00,,---,0.00,VWS V14.01,2013-04-11 06:55:00,
2013-04-11 02:56:00,68.9,56.7,29.73,South,187,0.0,0.0,65,0.00,,---,0.00,VWS V14.01,2013-04-11 06:56:00,
2013-04-11 02:57:00,68.8,56.6,29.73,ESE,106,0.0,1.0,65,0.00,,---,0.00,VWS V14.01,2013-04-11 06:57:00,
2013-04-11 02:58:00,68.8,56.6,29.73,ESE,121,0.0,1.0,65,0.00,,---,0.00,VWS V14.01,2013-04-11 06:58:00,
2013-04-11 02:59:00,68.7,56.5,29.73,ESE,123,0.0,0.0,65,0.00,,---,0.00,VWS V14.01,2013-04-11 06:59:00,
2013-04-11 03:00:00,68.7,56.5,29.73,SE,136,1.0,1.0,65,0.00,,---,0.00,VWS V14.01,2013-04-11 07:00:00,
2013-04-11 03:01:00,68.6,56.4,29.73,SE,133,0.0,1.0,65,0.00,,---,0.00,VWS V14.01,2013-04-11 07:01:00,
2013-04-11 03:02:00,68.6,56.4,29.73,SE,134,0.0,0.0,65,0.00,,---,0.00,VWS V14.01,2013-04-11 07:02:00,
2013-04-11 03:03:00,68.6,56.8,29.73,SE,133,0.0,0.0,66,0.00,,---,0.00,VWS V14.01,2013-04-11 07:03:00,
2013-04-11 03:04:00,68.5,56.7,29.73,SE,133,0.0,0.0,66,0.00,,---,0.00,VWS V14.01,2013-04-11 07:04:00,
2013-04-11 03:05:00,68.5,56.7,29.73,SE,133,0.0,0.0,66,0.00,,---,0.00,VWS V14.01,2013-04-11 07:05:00,
2013-04-11 03:06:00,68.5,56.7,29.73,SE,134,0.0,0.0,66,0.00,,---,0.00,VWS V14.01,2013-04-11 07:06:00,
2013-04-11 03:07:00,68.4,56.6,29.73,ESE,123,1.0,2.0,66,0.00,,---,0.00,VWS V14.01,2013-04-11 07:07:00,
2013-04-11 03:08:00,68.4,56.6,29.73,SSE,150,0.0,1.0,66,0.00,,---,0.00,VWS V14.01,2013-04-11 07:08:00,
2013-04-11 03:09:00,68.4,56.6,29.73,SE,127,0.0,1.0,66,0.00,,---,0.00,VWS V14.01,2013-04-11 07:09:00,
2013-04-11 03:10:00,68.4,56.6,29.73,SSE,157,0.0,1.0,66,0.00,,---,0.00,VWS V14.01,2013-04-11 07:10:00,
2013-04-11 03:11:00,68.4,56.6,29.73,SE,131,0.0,0.0,66,0.00,,---,0.00,VWS V14.01,2013-04-11 07:11:00,
2013-04-11 03:12:00,68.3,56.5,29.73,SE,131,0.0,0.0,66,0.00,,---,0.00,VWS V14.01,2013-04-11 07:12:00,
2013-04-11 03:13:00,68.3,56.5,29.73,SE,145,1.0,1.0,66,0.00,,---,0.00,VWS V14.01,2013-04-11 07:13:00,
2013-04-11 03:14:00,68.3,56.5,29.73,ESE,111,0.0,0.0,66,0.00,,---,0.00,VWS V14.01,2013-04-11 07:14:00,
2013-04-11 03:15:00,68.3,56.5,29.73,ESE,111,0.0,0.0,66,0.00,,---,0.00,VWS V14.01,2013-04-11 07:15:00,
2013-04-11 03:16:00,68.2,56.8,29.73,ESE,111,0.0,0.0,67,0.00,,---,0.00,VWS V14.01,2013-04-11 07:16:00,
2013-04-11 03:17:00,68.1,56.7,29.73,ESE,111,0.0,0.0,67,0.00,,---,0.00,VWS V14.01,2013-04-11 07:17:00,
2013-04-11 03:18:00,68.1,56.7,29.73,SE,133,2.0,2.0,67,0.00,,---,0.00,VWS V14.01,2013-04-11 07:18:00,
2013-04-11 03:19:00,68.0,56.7,29.73,SE,145,0.0,0.0,67,0.00,,---,0.00,VWS V14.01,2013-04-11 07:19:00,
2013-04-11 03:20:00,68.0,56.7,29.73,SE,127,0.0,0.0,67,0.00,,---,0.00,VWS V14.01,2013-04-11 07:20:00,
2013-04-11 03:21:00,68.0,56.7,29.73,SE,128,0.0,0.0,67,0.00,,---,0.00,VWS V14.01,2013-04-11 07:21:00,
2013-04-11 03:22:00,68.0,56.7,29.72,SSE,148,2.0,3.0,67,0.00,,---,0.00,VWS V14.01,2013-04-11 07:22:00,
2013-04-11 03:23:00,68.0,56.7,29.72,SE,129,0.0,2.0,67,0.00,,---,0.00,VWS V14.01,2013-04-11 07:23:00,
2013-04-11 03:24:00,68.0,56.7,29.72,SE,131,0.0,2.0,67,0.00,,---,0.00,VWS V14.01,2013-04-11 07:24:00,
2013-04-11 03:25:00,68.0,56.7,29.72,SE,146,0.0,2.0,67,0.00,,---,0.00,VWS V14.01,2013-04-11 07:25:00,
2013-04-11 03:26:00,68.0,56.7,29.72,SSW,201,0.0,1.0,67,0.00,,---,0.00,VWS V14.01,2013-04-11 07:26:00,
2013-04-11 03:27:00,68.1,56.7,29.72,SSW,201,0.0,0.0,67,0.00,,---,0.00,VWS V14.01,2013-04-11 07:27:00,
2013-04-11 03:28:00,68.1,56.7,29.72,SSW,201,0.0,0.0,67,0.00,,---,0.00,VWS V14.01,2013-04-11 07:28:00,
2013-04-11 03:29:00,68.0,56.7,29.72,ESE,119,0.0,0.0,67,0.00,,---,0.00,VWS V14.01,2013-04-11 07:29:00,
2013-04-11 03:30:00,68.0,56.7,29.72,East,83,1.0,1.0,67,0.00,,---,0.00,VWS V14.01,2013-04-11 07:30:00,
2013-04-11 03:31:00,68.1,56.7,29.72,East,83,0.0,1.0,67,0.00,,---,0.00,VWS V14.01,2013-04-11 07:31:00,
2013-04-11 03:32:00,68.1,56.7,29.72,ENE,78,2.0,2.0,67,0.00,,---,0.00,VWS V14.01,2013-04-11 07:32:00,
2013-04-11 03:33:00,68.1,56.7,29.72,ESE,121,1.0,2.0,67,0.00,,---,0.00,VWS V14.01,2013-04-11 07:33:00,
2013-04-11 03:34:00,68.2,56.8,29.72,ESE,115,0.0,1.0,67,0.00,,---,0.00,VWS V14.01,2013-04-11 07:34:00,
2013-04-11 03:35:00,68.2,56.8,29.72,ESE,112,0.0,1.0,67,0.00,,---,0.00,VWS V14.01,2013-04-11 07:35:00,
2013-04-11 03:36:00,68.3,56.9,29.72,ESE,105,1.0,2.0,67,0.00,,---,0.00,VWS V14.01,2013-04-11 07:36:00,
2013-04-11 03:37:00,68.3,56.5,29.71,ESE,115,0.0,2.0,66,0.00,,---,0.00,VWS V14.01,2013-04-11 07:37:00,
2013-04-11 03:38:00,68.4,56.6,29.71,ESE,113,1.0,2.0,66,0.00,,---,0.00,VWS V14.01,2013-04-11 07:38:00,
2013-04-11 03:39:00,68.4,56.6,29.72,ESE,110,1.0,2.0,66,0.00,,---,0.00,VWS V14.01,2013-04-11 07:39:00,
2013-04-11 03:40:00,68.5,56.7,29.72,ESE,108,0.0,2.0,66,0.00,,---,0.00,VWS V14.01,2013-04-11 07:40:00,
2013-04-11 03:41:00,68.5,56.7,29.71,ESE,119,3.0,4.0,66,0.00,,---,0.00,VWS V14.01,2013-04-11 07:41:00,
2013-04-11 03:42:00,68.5,56.7,29.71,SE,124,1.0,3.0,66,0.00,,---,0.00,VWS V14.01,2013-04-11 07:42:00,
2013-04-11 03:43:00,68.6,56.8,29.71,ESE,115,0.0,3.0,66,0.00,,---,0.00,VWS V14.01,2013-04-11 07:43:00,
2013-04-11 03:44:00,68.6,56.8,29.71,ESE,102,0.0,0.0,66,0.00,,---,0.00,VWS V14.01,2013-04-11 07:44:00,
2013-04-11 03:45:00,68.6,56.8,29.71,ESE,121,0.0,0.0,66,0.00,,---,0.00,VWS V14.01,2013-04-11 07:45:00,
2013-04-11 03:46:00,68.6,56.8,29.71,ESE,107,1.0,3.0,66,0.00,,---,0.00,VWS V14.01,2013-04-11 07:46:00,
2013-04-11 03:47:00,68.6,56.8,29.71,East,86,0.0,2.0,66,0.00,,---,0.00,VWS V14.01,2013-04-11 07:47:00,
2013-04-11 03:48:00,68.6,56.8,29.71,SSE,155,1.0,1.0,66,0.00,,---,0.00,VWS V14.01,2013-04-11 07:48:00,
2013-04-11 03:49:00,68.6,56.8,29.71,ESE,110,0.0,1.0,66,0.00,,---,0.00,VWS V14.01,2013-04-11 07:49:00,
2013-04-11 03:50:00,68.6,56.8,29.71,East,98,0.0,1.0,66,0.00,,---,0.00,VWS V14.01,2013-04-11 07:50:00,
2013-04-11 03:51:00,68.6,56.8,29.71,SE,136,0.0,3.0,66,0.00,,---,0.00,VWS V14.01,2013-04-11 07:51:00,
2013-04-11 03:52:00,68.6,56.8,29.71,SE,138,0.0,0.0,66,0.00,,---,0.00,VWS V14.01,2013-04-11 07:52:00,
2013-04-11 03:53:00,68.6,56.8,29.71,SE,138,0.0,0.0,66,0.00,,---,0.00,VWS V14.01,2013-04-11 07:53:00,
2013-04-11 03:54:00,68.5,56.7,29.71,SE,133,0.0,0.0,66,0.00,,---,0.00,VWS V14.01,2013-04-11 07:54:00,
2013-04-11 03:55:00,68.5,56.7,29.71,SE,133,0.0,0.0,66,0.00,,---,0.00,VWS V14.01,2013-04-11 07:55:00,
2013-04-11 03:56:00,68.5,56.7,29.71,East,100,1.0,1.0,66,0.00,,---,0.00,VWS V14.01,2013-04-11 07:56:00,
2013-04-11 03:57:00,68.5,56.7,29.71,ESE,104,0.0,1.0,66,0.00,,---,0.00,VWS V14.01,2013-04-11 07:57:00,
2013-04-11 03:58:00,68.5,56.7,29.71,SE,127,1.0,2.0,66,0.00,,---,0.00,VWS V14.01,2013-04-11 07:58:00,
2013-04-11 03:59:00,68.4,56.6,29.71,ESE,111,1.0,1.0,66,0.00,,---,0.00,VWS V14.01,2013-04-11 07:59:00,
2013-04-11 04:00:00,68.5,56.7,29.71,ESE,107,1.0,1.0,66,0.00,,---,0.00,VWS V14.01,2013-04-11 08:00:00,
2013-04-11 04:01:00,68.5,56.7,29.71,East,101,0.0,4.0,66,0.00,,---,0.00,VWS V14.01,2013-04-11 08:01:00,
2013-04-11 04:02:00,68.6,56.8,29.71,SE,143,0.0,1.0,66,0.00,,---,0.00,VWS V14.01,2013-04-11 08:02:00,
2013-04-11 04:03:00,68.6,56.8,29.71,SE,131,0.0,1.0,66,0.00,,---,0.00,VWS V14.01,2013-04-11 08:03:00,
2013-04-11 04:04:00,68.6,56.8,29.71,SE,145,0.0,1.0,66,0.00,,---,0.00,VWS V14.01,2013-04-11 08:04:00,
2013-04-11 04:05:00,68.6,56.8,29.71,SE,145,0.0,1.0,66,0.00,,---,0.00,VWS V14.01,2013-04-11 08:05:00,
2013-04-11 04:06:00,68.5,56.7,29.71,SSE,166,1.0,2.0,66,0.00,,---,0.00,VWS V14.01,2013-04-11 08:06:00,
2013-04-11 04:07:00,68.6,56.8,29.71,ESE,112,1.0,3.0,66,0.00,,---,0.00,VWS V14.01,2013-04-11 08:07:00,
2013-04-11 04:08:00,68.6,56.8,29.71,ESE,121,1.0,2.0,66,0.00,,---,0.00,VWS V14.01,2013-04-11 08:08:00,
2013-04-11 04:09:00,68.6,56.8,29.71,SE,138,1.0,1.0,66,0.00,,---,0.00,VWS V14.01,2013-04-11 08:09:00,
2013-04-11 04:10:00,68.6,56.8,29.71,ESE,102,0.0,1.0,66,0.00,,---,0.00,VWS V14.01,2013-04-11 08:10:00,
2013-04-11 04:11:00,68.6,56.8,29.71,ESE,119,0.0,2.0,66,0.00,,---,0.00,VWS V14.01,2013-04-11 08:11:00,
2013-04-11 04:12:00,68.6,56.8,29.71,East,88,1.0,2.0,66,0.00,,---,0.00,VWS V14.01,2013-04-11 08:12:00,
2013-04-11 04:13:00,68.6,56.8,29.71,SE,136,1.0,2.0,66,0.00,,---,0.00,VWS V14.01,2013-04-11 08:13:00,
2013-04-11 04:14:00,68.7,56.9,29.71,East,79,0.0,1.0,66,0.00,,---,0.00,VWS V14.01,2013-04-11 08:14:00,
2013-04-11 04:15:00,68.7,56.9,29.71,East,94,0.0,1.0,66,0.00,,---,0.00,VWS V14.01,2013-04-11 08:15:00,
2013-04-11 04:16:00,68.7,56.9,29.71,ESE,102,2.0,2.0,66,0.00,,---,0.00,VWS V14.01,2013-04-11 08:16:00,
2013-04-11 04:17:00,68.7,56.9,29.71,SE,125,1.0,1.0,66,0.00,,---,0.00,VWS V14.01,2013-04-11 08:17:00,
2013-04-11 04:18:00,68.8,57.0,29.71,ESE,111,1.0,1.0,66,0.00,,---,0.00,VWS V14.01,2013-04-11 08:18:00,
2013-04-11 04:19:00,68.9,56.7,29.71,SSW,200,0.0,1.0,65,0.00,,---,0.00,VWS V14.01,2013-04-11 08:19:00,
2013-04-11 04:20:00,68.9,56.7,29.71,South,176,1.0,3.0,65,0.00,,---,0.00,VWS V14.01,2013-04-11 08:20:00,
2013-04-11 04:21:00,68.9,56.7,29.71,SE,146,1.0,2.0,65,0.00,,---,0.00,VWS V14.01,2013-04-11 08:21:00,
2013-04-11 04:22:00,69.0,56.8,29.71,SSE,148,1.0,2.0,65,0.00,,---,0.00,VWS V14.01,2013-04-11 08:22:00,
2013-04-11 04:23:00,69.0,56.8,29.71,East,86,0.0,1.0,65,0.00,,---,0.00,VWS V14.01,2013-04-11 08:23:00,
2013-04-11 04:24:00,69.0,56.8,29.71,SE,131,1.0,1.0,65,0.00,,---,0.00,VWS V14.01,2013-04-11 08:24:00,
2013-04-11 04:25:00,69.0,56.8,29.71,SE,145,1.0,1.0,65,0.00,,---,0.00,VWS V14.01,2013-04-11 08:25:00,
2013-04-11 04:26:00,69.0,56.8,29.71,ESE,117,0.0,2.0,65,0.00,,---,0.00,VWS V14.01,2013-04-11 08:26:00,
2013-04-11 04:27:00,69.0,56.8,29.71,ESE,102,1.0,2.0,65,0.00,,---,0.00,VWS V14.01,2013-04-11 08:27:00,
2013-04-11 04:28:00,69.0,56.8,29.71,SE,140,1.0,2.0,65,0.00,,---,0.00,VWS V14.01,2013-04-11 08:28:00,
2013-04-11 04:29:00,69.0,56.8,29.71,East,93,0.0,2.0,65,0.00,,---,0.00,VWS V14.01,2013-04-11 08:29:00,
2013-04-11 04:30:00,69.0,56.8,29.71,SE,129,1.0,2.0,65,0.00,,---,0.00,VWS V14.01,2013-04-11 08:30:00,
2013-04-11 04:31:00,69.0,56.8,29.71,SE,129,2.0,2.0,65,0.00,,---,0.00,VWS V14.01,2013-04-11 08:31:00,
2013-04-11 04:32:00,69.0,56.8,29.71,ESE,107,0.0,2.0,65,0.00,,---,0.00,VWS V14.01,2013-04-11 08:32:00,
2013-04-11 04:33:00,69.0,56.8,29.71,SE,144,1.0,1.0,65,0.00,,---,0.00,VWS V14.01,2013-04-11 08:33:00,
2013-04-11 04:34:00,69.0,56.8,29.71,SSE,155,1.0,2.0,65,0.00,,---,0.00,VWS V14.01,2013-04-11 08:34:00,
2013-04-11 04:35:00,69.0,56.8,29.71,SSE,155,0.0,2.0,65,0.00,,---,0.00,VWS V14.01,2013-04-11 08:35:00,
2013-04-11 04:36:00,69.0,56.8,29.71,SSE,157,0.0,2.0,65,0.00,,---,0.00,VWS V14.01,2013-04-11 08:36:00,
2013-04-11 04:37:00,69.0,56.8,29.71,East,98,1.0,1.0,65,0.00,,---,0.00,VWS V14.01,2013-04-11 08:37:00,
2013-04-11 04:38:00,69.0,56.8,29.71,SE,146,0.0,1.0,65,0.00,,---,0.00,VWS V14.01,2013-04-11 08:38:00,
2013-04-11 04:39:00,69.0,56.8,29.71,SE,124,1.0,1.0,65,0.00,,---,0.00,VWS V14.01,2013-04-11 08:39:00,
2013-04-11 04:40:00,68.9,56.7,29.71,East,91,1.0,1.0,65,0.00,,---,0.00,VWS V14.01,2013-04-11 08:40:00,
2013-04-11 04:41:00,68.9,56.7,29.71,SE,144,1.0,4.0,65,0.00,,---,0.00,VWS V14.01,2013-04-11 08:41:00,
2013-04-11 04:42:00,68.9,56.7,29.71,ESE,109,1.0,2.0,65,0.00,,---,0.00,VWS V14.01,2013-04-11 08:42:00,
2013-04-11 04:43:00,68.9,56.7,29.71,ESE,106,1.0,2.0,65,0.00,,---,0.00,VWS V14.01,2013-04-11 08:43:00,
2013-04-11 04:44:00,68.9,56.7,29.71,SSE,149,1.0,1.0,65,0.00,,---,0.00,VWS V14.01,2013-04-11 08:44:00,
2013-04-11 04:45:00,68.9,56.7,29.71,SSE,152,5.0,6.0,65,0.00,,---,0.00,VWS V14.01,2013-04-11 08:45:00,
2013-04-11 04:46:00,69.0,56.8,29.71,SE,131,5.0,5.0,65,0.00,,---,0.00,VWS V14.01,2013-04-11 08:46:00,
2013-04-11 04:47:00,69.0,56.8,29.71,ESE,119,0.0,5.0,65,0.00,,---,0.00,VWS V14.01,2013-04-11 08:47:00,
2013-04-11 04:48:00,69.1,56.8,29.71,East,89,2.0,3.0,65,0.00,,---,0.00,VWS V14.01,2013-04-11 08:48:00,
2013-04-11 04:49:00,69.2,57.0,29.71,ESE,119,1.0,3.0,65,0.00,,---,0.00,VWS V14.01,2013-04-11 08:49:00,
2013-04-11 04:50:00,69.2,57.0,29.71,East,79,3.0,3.0,65,0.00,,---,0.00,VWS V14.01,2013-04-11 08:50:00,
2013-04-11 04:51:00,69.2,57.0,29.71,ESE,121,1.0,2.0,65,0.00,,---,0.00,VWS V14.01,2013-04-11 08:51:00,
2013-04-11 04:52:00,69.2,57.0,29.71,ESE,115,3.0,3.0,65,0.00,,---,0.00,VWS V14.01,2013-04-11 08:52:00,
2013-04-11 04:53:00,69.2,57.0,29.71,SSE,162,1.0,3.0,65,0.00,,---,0.00,VWS V14.01,2013-04-11 08:53:00,
2013-04-11 04:54:00,69.2,57.0,29.71,SSE,147,0.0,1.0,65,0.00,,---,0.00,VWS V14.01,2013-04-11 08:54:00,
2013-04-11 04:55:00,69.2,57.0,29.71,SE,128,1.0,5.0,65,0.00,,---,0.00,VWS V14.01,2013-04-11 08:55:00,
2013-04-11 04:56:00,69.2,57.0,29.71,ESE,102,2.0,4.0,65,0.00,,---,0.00,VWS V14.01,2013-04-11 08:56:00,
2013-04-11 04:57:00,69.2,57.0,29.71,ESE,114,2.0,3.0,65,0.00,,---,0.00,VWS V14.01,2013-04-11 08:57:00,
2013-04-11 04:58:00,69.2,57.0,29.71,SE,130,2.0,3.0,65,0.00,,---,0.00,VWS V14.01,2013-04-11 08:58:00,
2013-04-11 04:59:00,69.2,57.0,29.71,SE,136,1.0,2.0,65,0.00,,---,0.00,VWS V14.01,2013-04-11 08:59:00,
2013-04-11 05:00:00,69.2,57.0,29.71,SSE,147,0.0,2.0,65,0.00,,---,0.00,VWS V14.01,2013-04-11 09:00:00,
2013-04-11 05:01:00,69.2,57.0,29.71,SSW,200,1.0,1.0,65,0.00,,---,0.00,VWS V14.01,2013-04-11 09:01:00,
2013-04-11 05:02:00,69.2,57.0,29.71,SSE,157,2.0,5.0,65,0.00,,---,0.00,VWS V14.01,2013-04-11 09:02:00,
2013-04-11 05:03:00,69.2,57.0,29.71,SE,138,1.0,2.0,65,0.00,,---,0.00,VWS V14.01,2013-04-11 09:03:00,
2013-04-11 05:04:00,69.2,57.0,29.71,SE,136,1.0,1.0,65,0.00,,---,0.00,VWS V14.01,2013-04-11 09:04:00,
2013-04-11 05:05:00,69.2,57.0,29.71,East,95,1.0,2.0,65,0.00,,---,0.00,VWS V14.01,2013-04-11 09:05:00,
2013-04-11 05:06:00,69.1,56.8,29.71,SSE,161,1.0,2.0,65,0.00,,---,0.00,VWS V14.01,2013-04-11 09:06:00,
2013-04-11 05:07:00,69.1,56.8,29.71,SE,146,1.0,2.0,65,0.00,,---,0.00,VWS V14.01,2013-04-11 09:07:00,
2013-04-11 05:08:00,69.1,56.8,29.71,SE,140,1.0,1.0,65,0.00,,---,0.00,VWS V14.01,2013-04-11 09:08:00,
2013-04-11 05:09:00,69.1,56.8,29.71,East,98,0.0,1.0,65,0.00,,---,0.00,VWS V14.01,2013-04-11 09:09:00,
2013-04-11 05:10:00,69.1,56.8,29.71,East,94,3.0,4.0,65,0.00,,---,0.00,VWS V14.01,2013-04-11 09:10:00,
2013-04-11 05:11:00,69.0,56.8,29.71,SE,127,2.0,3.0,65,0.00,,---,0.00,VWS V14.01,2013-04-11 09:11:00,
2013-04-11 05:12:00,69.1,56.8,29.71,SSE,150,1.0,2.0,65,0.00,,---,0.00,VWS V14.01,2013-04-11 09:12:00,
2013-04-11 05:13:00,69.1,56.8,29.72,East,101,0.0,2.0,65,0.00,,---,0.00,VWS V14.01,2013-04-11 09:13:00,
2013-04-11 05:14:00,69.0,56.8,29.72,ESE,113,2.0,4.0,65,0.00,,---,0.00,VWS V14.01,2013-04-11 09:14:00,
2013-04-11 05:15:00,69.0,56.8,29.72,SSE,155,1.0,4.0,65,0.00,,---,0.00,VWS V14.01,2013-04-11 09:15:00,
2013-04-11 05:16:00,69.0,56.8,29.72,SSE,157,1.0,2.0,65,0.00,,---,0.00,VWS V14.01,2013-04-11 09:16:00,
2013-04-11 05:17:00,69.0,57.2,29.72,East,96,1.0,2.0,66,0.00,,---,0.00,VWS V14.01,2013-04-11 09:17:00,
2013-04-11 05:18:00,69.0,57.2,29.72,SSE,155,1.0,2.0,66,0.00,,---,0.00,VWS V14.01,2013-04-11 09:18:00,
2013-04-11 05:19:00,69.0,57.2,29.72,South,173,1.0,1.0,66,0.00,,---,0.00,VWS V14.01,2013-04-11 09:19:00,
2013-04-11 05:20:00,69.0,57.2,29.72,SE,140,0.0,1.0,66,0.00,,---,0.00,VWS V14.01,2013-04-11 09:20:00,
2013-04-11 05:21:00,69.0,57.2,29.72,ESE,107,0.0,1.0,66,0.00,,---,0.00,VWS V14.01,2013-04-11 09:21:00,
2013-04-11 05:22:00,69.0,57.2,29.72,SSE,164,1.0,3.0,66,0.00,,---,0.00,VWS V14.01,2013-04-11 09:22:00,
2013-04-11 05:23:00,69.0,57.2,29.72,ESE,102,0.0,1.0,66,0.00,,---,0.00,VWS V14.01,2013-04-11 09:23:00,
2013-04-11 05:24:00,69.0,57.2,29.72,SE,138,0.0,0.0,66,0.00,,---,0.00,VWS V14.01,2013-04-11 09:24:00,
2013-04-11 05:25:00,69.0,57.2,29.72,SSE,157,2.0,3.0,66,0.00,,---,0.00,VWS V14.01,2013-04-11 09:25:00,
2013-04-11 05:26:00,69.0,57.2,29.72,ESE,118,1.0,2.0,66,0.00,,---,0.00,VWS V14.01,2013-04-11 09:26:00,
2013-04-11 05:27:00,69.0,57.2,29.72,SW,222,0.0,2.0,66,0.00,,---,0.00,VWS V14.01,2013-04-11 09:27:00,
2013-04-11 05:28:00,69.0,57.2,29.72,SSW,207,0.0,0.0,66,0.00,,---,0.00,VWS V14.01,2013-04-11 09:28:00,
2013-04-11 05:29:00,69.0,57.2,29.72,SE,136,0.0,0.0,66,0.00,,---,0.00,VWS V14.01,2013-04-11 09:29:00,
2013-04-11 05:30:00,69.0,57.2,29.72,SSW,194,0.0,1.0,66,0.00,,---,0.00,VWS V14.01,2013-04-11 09:30:00,
2013-04-11 05:31:00,68.9,57.1,29.72,ENE,60,0.0,1.0,66,0.00,,---,0.00,VWS V14.01,2013-04-11 09:31:00,
2013-04-11 05:32:00,68.9,57.1,29.72,ENE,65,0.0,0.0,66,0.00,,---,0.00,VWS V14.01,2013-04-11 09:32:00,
2013-04-11 05:33:00,68.9,57.1,29.73,ESE,119,1.0,1.0,66,0.00,,---,0.00,VWS V14.01,2013-04-11 09:33:00,
2013-04-11 05:34:00,68.8,57.0,29.73,SSW,205,3.0,3.0,66,0.00,,---,0.00,VWS V14.01,2013-04-11 09:34:00,
2013-04-11 05:35:00,68.8,57.0,29.73,WNW,292,2.0,3.0,66,0.00,,---,0.00,VWS V14.01,2013-04-11 09:35:00,
2013-04-11 05:36:00,68.8,57.0,29.73,West,268,3.0,4.0,66,0.00,,---,0.00,VWS V14.01,2013-04-11 09:36:00,
2013-04-11 05:37:00,68.8,57.0,29.73,WSW,249,6.0,6.0,66,0.00,,---,0.00,VWS V14.01,2013-04-11 09:37:00,
2013-04-11 05:38:00,68.8,57.4,29.73,West,274,4.0,6.0,67,0.00,,---,0.00,VWS V14.01,2013-04-11 09:38:00,
2013-04-11 05:39:00,68.8,57.4,29.74,WNW,290,3.0,5.0,67,0.00,,---,0.00,VWS V14.01,2013-04-11 09:39:00,
2013-04-11 05:40:00,68.7,57.3,29.73,WNW,290,6.0,6.0,67,0.00,,---,0.00,VWS V14.01,2013-04-11 09:40:00,
2013-04-11 05:41:00,68.7,57.3,29.74,West,270,2.0,7.0,67,0.00,,---,0.00,VWS V14.01,2013-04-11 09:41:00,
2013-04-11 05:42:00,68.6,57.6,29.74,SW,230,4.0,5.0,68,0.00,,---,0.00,VWS V14.01,2013-04-11 09:42:00,
2013-04-11 05:43:00,68.6,57.6,29.74,WNW,290,2.0,5.0,68,0.00,,---,0.00,VWS V14.01,2013-04-11 09:43:00,
2013-04-11 05:44:00,68.5,57.9,29.74,WNW,285,2.0,3.0,69,0.00,,---,0.00,VWS V14.01,2013-04-11 09:44:00,
2013-04-11 05:45:00,68.4,57.8,29.74,WNW,294,3.0,3.0,69,0.00,,---,0.00,VWS V14.01,2013-04-11 09:45:00,
2013-04-11 05:46:00,68.4,57.8,29.74,WNW,288,3.0,7.0,69,0.00,,---,0.00,VWS V14.01,2013-04-11 09:46:00,
2013-04-11 05:47:00,68.3,58.5,29.74,WNW,302,3.0,6.0,71,0.00,,---,0.00,VWS V14.01,2013-04-11 09:47:00,
2013-04-11 05:48:00,68.1,58.7,29.74,West,274,4.0,5.0,72,0.00,,---,0.00,VWS V14.01,2013-04-11 09:48:00,
2013-04-11 05:49:00,68.0,59.4,29.73,WSW,249,6.0,6.0,74,0.00,,---,0.00,VWS V14.01,2013-04-11 09:49:00,
2013-04-11 05:50:00,67.9,59.3,29.73,West,268,3.0,6.0,74,0.00,,---,0.00,VWS V14.01,2013-04-11 09:50:00,
2013-04-11 05:51:00,67.7,59.5,29.73,West,261,4.0,5.0,75,0.00,,---,0.00,VWS V14.01,2013-04-11 09:51:00,
2013-04-11 05:52:00,67.5,59.3,29.73,West,277,1.0,4.0,75,0.00,,---,0.00,VWS V14.01,2013-04-11 09:52:00,
2013-04-11 05:53:00,67.4,59.2,29.73,WNW,294,1.0,3.0,75,0.00,,---,0.00,VWS V14.01,2013-04-11 09:53:00,
2013-04-11 05:54:00,67.2,59.4,29.73,West,280,1.0,2.0,76,0.00,,---,0.00,VWS V14.01,2013-04-11 09:54:00,
2013-04-11 05:55:00,67.2,59.4,29.73,NW,306,2.0,3.0,76,0.00,,---,0.00,VWS V14.01,2013-04-11 09:55:00,
2013-04-11 05:56:00,67.1,59.7,29.73,NW,306,1.0,4.0,77,0.00,,---,0.00,VWS V14.01,2013-04-11 09:56:00,
2013-04-11 05:57:00,67.0,59.6,29.73,NW,308,2.0,4.0,77,0.00,,---,0.00,VWS V14.01,2013-04-11 09:57:00,
2013-04-11 05:58:00,66.8,59.7,29.73,NW,306,4.0,4.0,78,0.00,,---,0.00,VWS V14.01,2013-04-11 09:58:00,
2013-04-11 05:59:00,66.7,59.6,29.73,NW,311,4.0,4.0,78,0.00,,---,0.00,VWS V14.01,2013-04-11 09:59:00,
2013-04-11 06:00:00,66.6,59.5,29.73,NW,315,3.0,4.0,78,0.00,,---,0.00,VWS V14.01,2013-04-11 10:00:00,
2013-04-11 06:01:00,66.5,59.8,29.73,SW,233,1.0,4.0,79,0.00,,---,0.00,VWS V14.01,2013-04-11 10:01:00,
2013-04-11 06:02:00,66.4,60.0,29.73,WSW,250,2.0,3.0,80,0.00,,---,0.00,VWS V14.01,2013-04-11 10:02:00,
2013-04-11 06:03:00,66.3,60.0,29.73,WNW,298,1.0,3.0,80,0.00,,---,0.00,VWS V14.01,2013-04-11 10:03:00,
2013-04-11 06:04:00,66.2,59.9,29.73,WNW,298,2.0,2.0,80,0.00,,---,0.00,VWS V14.01,2013-04-11 10:04:00,
2013-04-11 06:05:00,66.1,60.1,29.73,WNW,297,0.0,2.0,81,0.00,,---,0.00,VWS V14.01,2013-04-11 10:05:00,
2013-04-11 06:06:00,66.0,60.0,29.73,NW,310,2.0,3.0,81,0.00,,---,0.00,VWS V14.01,2013-04-11 10:06:00,
2013-04-11 06:07:00,65.9,59.9,29.73,NW,311,0.0,2.0,81,0.00,,---,0.00,VWS V14.01,2013-04-11 10:07:00,
2013-04-11 06:08:00,65.8,60.2,29.73,NW,311,1.0,1.0,82,0.00,,---,0.00,VWS V14.01,2013-04-11 10:08:00,
2013-04-11 06:09:00,65.7,60.1,29.72,NW,310,0.0,0.0,82,0.00,,---,0.00,VWS V14.01,2013-04-11 10:09:00,
2013-04-11 06:10:00,65.6,60.0,29.72,NW,311,2.0,2.0,82,0.00,,---,0.00,VWS V14.01,2013-04-11 10:10:00,
2013-04-11 06:11:00,65.6,60.0,29.73,NW,304,1.0,2.0,82,0.00,,---,0.00,VWS V14.01,2013-04-11 10:11:00,
2013-04-11 06:12:00,65.5,59.9,29.72,NW,305,0.0,1.0,82,0.00,,---,0.00,VWS V14.01,2013-04-11 10:12:00,
2013-04-11 06:13:00,65.4,60.1,29.72,NW,313,2.0,2.0,83,0.00,,---,0.00,VWS V14.01,2013-04-11 10:13:00,
2013-04-11 06:14:00,65.3,60.0,29.72,NW,323,1.0,1.0,83,0.00,,---,0.00,VWS V14.01,2013-04-11 10:14:00,
2013-04-11 06:15:00,65.3,60.0,29.72,NW,323,0.0,1.0,83,0.00,,---,0.00,VWS V14.01,2013-04-11 10:15:00,
2013-04-11 06:16:00,65.2,59.9,29.72,NW,323,0.0,0.0,83,0.00,,---,0.00,VWS V14.01,2013-04-11 10:16:00,
2013-04-11 06:17:00,65.2,59.9,29.72,NW,323,0.0,0.0,83,0.00,,---,0.00,VWS V14.01,2013-04-11 10:17:00,
2013-04-11 06:18:00,65.1,60.2,29.72,NW,316,0.0,0.0,84,0.00,,---,0.00,VWS V14.01,2013-04-11 10:18:00,
2013-04-11 06:19:00,65.1,60.2,29.72,NW,316,0.0,0.0,84,0.00,,---,0.00,VWS V14.01,2013-04-11 10:19:00,
2013-04-11 06:20:00,65.0,60.0,29.72,NW,316,0.0,0.0,84,0.00,,---,0.00,VWS V14.01,2013-04-11 10:20:00,
2013-04-11 06:21:00,65.0,60.0,29.72,NW,316,0.0,0.0,84,0.00,,---,0.00,VWS V14.01,2013-04-11 10:21:00,
2013-04-11 06:22:00,64.9,60.0,29.72,NW,316,0.0,0.0,84,0.00,,---,0.00,VWS V14.01,2013-04-11 10:22:00,
2013-04-11 06:23:00,64.9,60.0,29.73,NW,308,1.0,1.0,84,0.00,,---,0.00,VWS V14.01,2013-04-11 10:23:00,
2013-04-11 06:24:00,64.9,60.3,29.73,NW,308,0.0,0.0,85,0.00,,---,0.00,VWS V14.01,2013-04-11 10:24:00,
2013-04-11 06:25:00,64.8,60.2,29.73,NW,308,0.0,0.0,85,0.00,,---,0.00,VWS V14.01,2013-04-11 10:25:00,
2013-04-11 06:26:00,64.8,60.2,29.73,NW,308,0.0,0.0,85,0.00,,---,0.00,VWS V14.01,2013-04-11 10:26:00,
2013-04-11 06:27:00,64.8,60.2,29.73,NW,309,0.0,0.0,85,0.00,,---,0.00,VWS V14.01,2013-04-11 10:27:00,
2013-04-11 06:28:00,64.7,60.1,29.74,WSW,256,0.0,0.0,85,0.00,,---,0.00,VWS V14.01,2013-04-11 10:28:00,
2013-04-11 06:29:00,64.7,60.4,29.74,WNW,283,0.0,0.0,86,0.00,,---,0.01,VWS V14.01,2013-04-11 10:29:00,
2013-04-11 06:34:00,64.5,60.5,29.74,West,268,0.0,0.0,87,0.05,,---,0.05,VWS V14.01,2013-04-11 10:34:00,
2013-04-11 06:39:00,64.2,60.6,29.74,NNW,330,2.0,3.0,88,0.07,,---,0.07,VWS V14.01,2013-04-11 10:39:00,
2013-04-11 06:44:00,64.0,60.4,29.74,NW,313,0.0,0.0,88,0.07,,---,0.07,VWS V14.01,2013-04-11 10:44:00,
2013-04-11 06:49:00,63.8,60.5,29.73,NW,323,0.0,0.0,89,0.07,,---,0.07,VWS V14.01,2013-04-11 10:49:00,
2013-04-11 06:54:00,63.7,60.7,29.72,NE,34,0.0,0.0,90,0.07,,---,0.07,VWS V14.01,2013-04-11 10:54:00,
2013-04-11 06:59:00,63.5,60.5,29.73,NE,43,0.0,0.0,90,0.07,,---,0.07,VWS V14.01,2013-04-11 10:59:00,
2013-04-11 07:04:00,63.4,60.4,29.73,NE,40,0.0,0.0,90,0.07,,---,0.07,VWS V14.01,2013-04-11 11:04:00,
2013-04-11 07:09:00,63.4,60.7,29.73,North,2,1.0,1.0,91,0.10,,---,0.10,VWS V14.01,2013-04-11 11:09:00,
2013-04-11 07:14:00,63.4,60.7,29.74,NNW,330,0.0,0.0,91,0.14,,---,0.14,VWS V14.01,2013-04-11 11:14:00,
2013-04-11 07:19:00,63.3,60.6,29.74,NW,318,0.0,0.0,91,0.15,,---,0.15,VWS V14.01,2013-04-11 11:19:00,
2013-04-11 07:24:00,63.1,60.7,29.74,NW,319,0.0,0.0,92,0.16,,---,0.16,VWS V14.01,2013-04-11 11:24:00,
2013-04-11 07:29:00,63.0,60.6,29.76,West,277,0.0,1.0,92,0.17,,---,0.17,VWS V14.01,2013-04-11 11:29:00,
2013-04-11 07:34:00,63.0,61.0,29.76,West,266,0.0,1.0,93,0.15,,---,0.20,VWS V14.01,2013-04-11 11:34:00,
2013-04-11 07:39:00,62.8,60.8,29.77,WNW,292,1.0,2.0,93,0.16,,---,0.23,VWS V14.01,2013-04-11 11:39:00,
2013-04-11 07:44:00,62.7,60.7,29.76,WNW,295,0.0,0.0,93,0.24,,---,0.31,VWS V14.01,2013-04-11 11:44:00,
2013-04-11 07:49:00,62.6,60.5,29.75,NW,320,0.0,0.0,93,0.24,,---,0.31,VWS V14.01,2013-04-11 11:49:00,
2013-04-11 07:54:00,62.6,60.8,29.75,East,91,0.0,0.0,94,0.25,,---,0.32,VWS V14.01,2013-04-11 11:54:00,
2013-04-11 07:59:00,62.5,60.8,29.75,East,95,1.0,2.0,94,0.25,,---,0.32,VWS V14.01,2013-04-11 11:59:00,
2013-04-11 08:04:00,62.5,60.8,29.75,East,79,0.0,2.0,94,0.25,,---,0.32,VWS V14.01,2013-04-11 12:04:00,
2013-04-11 08:09:00,62.5,60.8,29.74,ESE,104,1.0,1.0,94,0.22,,---,0.32,VWS V14.01,2013-04-11 12:09:00,
2013-04-11 08:14:00,62.5,60.8,29.75,ESE,115,1.0,1.0,94,0.19,,---,0.32,VWS V14.01,2013-04-11 12:14:00,
2013-04-11 08:19:00,62.5,60.8,29.75,ESE,119,0.0,1.0,94,0.17,,---,0.32,VWS V14.01,2013-04-11 12:19:00,
2013-04-11 08:24:00,62.5,61.0,29.75,ESE,118,0.0,0.0,95,0.16,,---,0.32,VWS V14.01,2013-04-11 12:24:00,
2013-04-11 08:29:00,62.6,61.2,29.75,East,100,2.0,4.0,95,0.15,,---,0.32,VWS V14.01,2013-04-11 12:29:00,
2013-04-11 08:34:00,62.6,61.2,29.75,East,98,4.0,4.0,95,0.13,,---,0.32,VWS V14.01,2013-04-11 12:34:00,
2013-04-11 08:39:00,62.6,61.2,29.75,East,79,0.0,1.0,95,0.10,,---,0.32,VWS V14.01,2013-04-11 12:39:00,
2013-04-11 08:44:00,62.6,61.2,29.75,WSW,239,1.0,2.0,95,0.01,,---,0.32,VWS V14.01,2013-04-11 12:44:00,
2013-04-11 08:49:00,62.6,61.2,29.75,SE,143,0.0,0.0,95,0.02,,---,0.33,VWS V14.01,2013-04-11 12:49:00,
2013-04-11 08:54:00,62.7,61.2,29.75,SE,136,0.0,1.0,95,0.01,,---,0.33,VWS V14.01,2013-04-11 12:54:00,
2013-04-11 08:59:00,62.7,61.2,29.75,East,98,4.0,4.0,95,0.01,,---,0.33,VWS V14.01,2013-04-11 12:59:00,
2013-04-11 09:04:00,62.7,61.2,29.74,SE,129,1.0,2.0,95,0.02,,---,0.34,VWS V14.01,2013-04-11 13:04:00,
2013-04-11 09:09:00,62.7,61.2,29.75,East,81,0.0,0.0,95,0.02,,---,0.34,VWS V14.01,2013-04-11 13:09:00,
2013-04-11 09:14:00,62.7,61.2,29.75,SE,124,0.0,0.0,95,0.02,,---,0.34,VWS V14.01,2013-04-11 13:14:00,
2013-04-11 09:19:00,62.6,60.8,29.74,SE,145,0.0,1.0,94,0.02,,---,0.34,VWS V14.01,2013-04-11 13:19:00,
2013-04-11 09:24:00,62.5,60.8,29.75,ESE,120,0.0,0.0,94,0.03,,---,0.35,VWS V14.01,2013-04-11 13:24:00,
2013-04-11 09:29:00,62.5,60.8,29.75,SSE,147,0.0,1.0,94,0.03,,---,0.35,VWS V14.01,2013-04-11 13:29:00,
2013-04-11 09:34:00,62.4,60.7,29.74,East,86,2.0,2.0,94,0.03,,---,0.35,VWS V14.01,2013-04-11 13:34:00,
2013-04-11 09:39:00,62.5,60.8,29.74,SE,140,1.0,1.0,94,0.04,,---,0.36,VWS V14.01,2013-04-11 13:39:00,
2013-04-11 09:44:00,62.6,60.8,29.74,ESE,121,3.0,3.0,94,0.04,,---,0.36,VWS V14.01,2013-04-11 13:44:00,
2013-04-11 09:49:00,62.8,61.0,29.74,ESE,108,2.0,3.0,94,0.04,,---,0.36,VWS V14.01,2013-04-11 13:49:00,
2013-04-11 09:54:00,62.8,61.0,29.73,East,86,2.0,2.0,94,0.04,,---,0.37,VWS V14.01,2013-04-11 13:54:00,
2013-04-11 09:59:00,62.8,61.0,29.73,East,101,0.0,0.0,94,0.04,,---,0.37,VWS V14.01,2013-04-11 13:59:00,
2013-04-11 10:04:00,62.8,61.0,29.74,East,90,2.0,5.0,94,0.03,,---,0.37,VWS V14.01,2013-04-11 14:04:00,
2013-04-11 10:09:00,62.7,60.7,29.74,SE,132,0.0,2.0,93,0.03,,---,0.37,VWS V14.01,2013-04-11 14:09:00,
2013-04-11 10:14:00,62.6,60.5,29.73,ESE,111,4.0,7.0,93,0.04,,---,0.38,VWS V14.01,2013-04-11 14:14:00,
2013-04-11 10:19:00,62.4,60.0,29.73,ESE,102,0.0,2.0,92,0.04,,---,0.38,VWS V14.01,2013-04-11 14:19:00,
2013-04-11 10:24:00,62.3,60.0,29.73,ESE,102,0.0,3.0,92,0.04,,---,0.39,VWS V14.01,2013-04-11 14:24:00,
2013-04-11 10:29:00,62.2,60.2,29.73,SSE,166,1.0,2.0,93,0.04,,---,0.39,VWS V14.01,2013-04-11 14:29:00,
2013-04-11 10:34:00,62.2,59.8,29.73,SE,131,0.0,1.0,92,0.04,,---,0.39,VWS V14.01,2013-04-11 14:34:00,
2013-04-11 10:39:00,62.1,59.8,29.72,SSE,153,0.0,4.0,92,0.03,,---,0.39,VWS V14.01,2013-04-11 14:39:00,
2013-04-11 10:44:00,61.9,59.5,29.72,South,178,1.0,1.0,92,0.03,,---,0.39,VWS V14.01,2013-04-11 14:44:00,
2013-04-11 10:49:00,61.8,59.5,29.72,South,191,0.0,0.0,92,0.03,,---,0.39,VWS V14.01,2013-04-11 14:49:00,
2013-04-11 10:54:00,61.9,59.5,29.72,East,91,0.0,1.0,92,0.02,,---,0.39,VWS V14.01,2013-04-11 14:54:00,
2013-04-11 10:59:00,61.8,59.5,29.72,SSE,153,2.0,3.0,92,0.02,,---,0.39,VWS V14.01,2013-04-11 14:59:00,
2013-04-11 11:04:00,61.8,59.2,29.72,SE,146,0.0,1.0,91,0.02,,---,0.39,VWS V14.01,2013-04-11 15:04:00,
2013-04-11 11:09:00,61.8,58.8,29.72,ESE,110,3.0,7.0,90,0.02,,---,0.39,VWS V14.01,2013-04-11 15:09:00,
2013-04-11 11:14:00,61.8,59.2,29.73,SSE,149,5.0,5.0,91,0.01,,---,0.39,VWS V14.01,2013-04-11 15:14:00,
2013-04-11 11:19:00,61.7,58.7,29.73,ESE,107,0.0,2.0,90,0.01,,---,0.39,VWS V14.01,2013-04-11 15:19:00,
2013-04-11 11:24:00,61.8,59.2,29.73,SE,130,1.0,4.0,91,0.01,,---,0.40,VWS V14.01,2013-04-11 15:24:00,
2013-04-11 11:29:00,62.0,59.3,29.73,SSE,157,1.0,6.0,91,0.01,,---,0.40,VWS V14.01,2013-04-11 15:29:00,
2013-04-11 11:34:00,62.1,59.5,29.73,SSE,162,3.0,3.0,91,0.01,,---,0.40,VWS V14.01,2013-04-11 15:34:00,
2013-04-11 11:39:00,62.1,59.8,29.73,SE,132,2.0,2.0,92,0.01,,---,0.40,VWS V14.01,2013-04-11 15:39:00,
2013-04-11 11:44:00,62.2,59.8,29.73,East,101,5.0,5.0,92,0.01,,---,0.40,VWS V14.01,2013-04-11 15:44:00,
2013-04-11 11:49:00,62.4,59.7,29.73,SSE,157,0.0,1.0,91,0.01,,---,0.40,VWS V14.01,2013-04-11 15:49:00,
2013-04-11 11:54:00,62.8,60.5,29.73,SE,141,2.0,2.0,92,0.01,,---,0.40,VWS V14.01,2013-04-11 15:54:00,
2013-04-11 11:59:00,63.1,60.4,29.73,SW,221,1.0,1.0,91,0.01,,---,0.40,VWS V14.01,2013-04-11 15:59:00,
2013-04-11 12:04:00,63.3,60.6,29.73,East,100,2.0,2.0,91,0.01,,---,0.40,VWS V14.01,2013-04-11 16:04:00,
2013-04-11 12:09:00,63.4,60.4,29.72,SE,145,0.0,1.0,90,0.01,,---,0.40,VWS V14.01,2013-04-11 16:09:00,
2013-04-11 12:14:00,63.5,60.8,29.72,East,88,1.0,1.0,91,0.01,,---,0.40,VWS V14.01,2013-04-11 16:14:00,
2013-04-11 12:19:00,63.7,60.7,29.73,ENE,67,3.0,3.0,90,0.01,,---,0.40,VWS V14.01,2013-04-11 16:19:00,
2013-04-11 12:24:00,63.7,60.7,29.72,SSW,199,0.0,1.0,90,0.00,,---,0.40,VWS V14.01,2013-04-11 16:24:00,
2013-04-11 12:29:00,63.8,60.5,29.72,South,173,0.0,4.0,89,0.00,,---,0.40,VWS V14.01,2013-04-11 16:29:00,
2013-04-11 12:34:00,63.9,60.9,29.72,South,174,2.0,5.0,90,0.00,,---,0.40,VWS V14.01,2013-04-11 16:34:00,
2013-04-11 12:39:00,63.9,60.6,29.72,East,90,5.0,6.0,89,0.00,,---,0.40,VWS V14.01,2013-04-11 16:39:00,
2013-04-11 12:44:00,63.9,60.6,29.71,SSE,162,1.0,4.0,89,0.00,,---,0.40,VWS V14.01,2013-04-11 16:44:00,
2013-04-11 12:49:00,63.9,60.6,29.72,ESE,118,3.0,9.0,89,0.00,,---,0.40,VWS V14.01,2013-04-11 16:49:00,
2013-04-11 12:54:00,64.0,61.0,29.71,ESE,110,3.0,4.0,90,0.00,,---,0.40,VWS V14.01,2013-04-11 16:54:00,
2013-04-11 12:59:00,64.2,61.2,29.71,SSE,162,0.0,4.0,90,0.00,,---,0.40,VWS V14.01,2013-04-11 16:59:00,
2013-04-11 13:04:00,64.3,61.0,29.70,SSE,160,4.0,5.0,89,0.00,,---,0.40,VWS V14.01,2013-04-11 17:04:00,
2013-04-11 13:09:00,64.5,61.2,29.70,South,190,0.0,0.0,89,0.00,,---,0.40,VWS V14.01,2013-04-11 17:09:00,
2013-04-11 13:14:00,64.6,61.0,29.70,ESE,123,0.0,1.0,88,0.00,,---,0.40,VWS V14.01,2013-04-11 17:14:00,
2013-04-11 13:19:00,64.5,60.5,29.70,NE,54,0.0,3.0,87,0.00,,---,0.40,VWS V14.01,2013-04-11 17:19:00,
2013-04-11 13:24:00,64.4,60.8,29.70,SSE,148,0.0,0.0,88,0.00,,---,0.40,VWS V14.01,2013-04-11 17:24:00,
2013-04-11 13:29:00,64.4,60.8,29.69,South,180,2.0,5.0,88,0.00,,---,0.40,VWS V14.01,2013-04-11 17:29:00,
2013-04-11 13:34:00,64.2,60.3,29.69,South,176,0.0,0.0,87,0.00,,---,0.40,VWS V14.01,2013-04-11 17:34:00,
2013-04-11 13:39:00,64.2,60.6,29.69,SSE,147,0.0,1.0,88,0.00,,---,0.40,VWS V14.01,2013-04-11 17:39:00,
2013-04-11 13:44:00,64.1,60.5,29.70,SSE,161,0.0,1.0,88,0.00,,---,0.40,VWS V14.01,2013-04-11 17:44:00,
2013-04-11 13:49:00,63.9,60.3,29.69,SE,140,0.0,1.0,88,0.01,,---,0.41,VWS V14.01,2013-04-11 17:49:00,
2013-04-11 13:54:00,63.7,60.4,29.68,East,91,2.0,2.0,89,0.02,,---,0.42,VWS V14.01,2013-04-11 17:54:00,
2013-04-11 13:59:00,63.5,60.5,29.68,East,93,0.0,0.0,90,0.02,,---,0.42,VWS V14.01,2013-04-11 17:59:00,
2013-04-11 14:04:00,63.4,60.4,29.68,ESE,111,0.0,0.0,90,0.02,,---,0.42,VWS V14.01,2013-04-11 18:04:00,
2013-04-11 14:09:00,63.2,60.2,29.68,SE,138,0.0,1.0,90,0.02,,---,0.42,VWS V14.01,2013-04-11 18:09:00,
2013-04-11 14:14:00,62.9,59.9,29.68,East,82,0.0,1.0,90,0.02,,---,0.42,VWS V14.01,2013-04-11 18:14:00,
2013-04-11 14:19:00,62.7,59.7,29.68,SE,145,0.0,2.0,90,0.04,,---,0.44,VWS V14.01,2013-04-11 18:19:00,
2013-04-11 14:24:00,62.4,59.4,29.68,SW,215,0.0,3.0,90,0.05,,---,0.45,VWS V14.01,2013-04-11 18:24:00,
2013-04-11 14:29:00,62.4,59.7,29.68,North,2,0.0,0.0,91,0.06,,---,0.46,VWS V14.01,2013-04-11 18:29:00,
2013-04-11 14:34:00,62.2,59.5,29.69,SW,215,0.0,1.0,91,0.07,,---,0.47,VWS V14.01,2013-04-11 18:34:00,
2013-04-11 14:39:00,62.0,59.3,29.68,South,177,1.0,1.0,91,0.08,,---,0.48,VWS V14.01,2013-04-11 18:39:00,
2013-04-11 14:44:00,61.9,59.5,29.68,SSE,157,0.0,0.0,92,0.08,,---,0.48,VWS V14.01,2013-04-11 18:44:00,
2013-04-11 14:49:00,61.8,59.2,29.67,SSE,161,0.0,0.0,91,0.08,,---,0.49,VWS V14.01,2013-04-11 18:49:00,
2013-04-11 14:54:00,61.8,59.5,29.66,SE,145,0.0,0.0,92,0.07,,---,0.49,VWS V14.01,2013-04-11 18:54:00,
2013-04-11 14:59:00,61.8,59.5,29.66,East,87,0.0,0.0,92,0.07,,---,0.49,VWS V14.01,2013-04-11 18:59:00,
2013-04-11 15:04:00,61.8,59.2,29.65,SE,138,0.0,0.0,91,0.07,,---,0.49,VWS V14.01,2013-04-11 19:04:00,
2013-04-11 15:09:00,61.9,59.5,29.65,SW,225,0.0,0.0,92,0.07,,---,0.49,VWS V14.01,2013-04-11 19:09:00,
2013-04-11 15:14:00,61.9,59.5,29.65,SW,224,0.0,0.0,92,0.07,,---,0.49,VWS V14.01,2013-04-11 19:14:00,
2013-04-11 15:19:00,61.9,59.2,29.65,SW,224,0.0,0.0,91,0.06,,---,0.49,VWS V14.01,2013-04-11 19:19:00,
2013-04-11 15:24:00,62.0,59.7,29.66,SW,225,0.0,0.0,92,0.04,,---,0.49,VWS V14.01,2013-04-11 19:24:00,
2013-04-11 15:29:00,62.0,59.7,29.67,SW,221,0.0,0.0,92,0.04,,---,0.50,VWS V14.01,2013-04-11 19:29:00,
2013-04-11 15:34:00,61.7,59.4,29.66,WSW,249,0.0,1.0,92,0.04,,---,0.51,VWS V14.01,2013-04-11 19:34:00,
2013-04-11 15:39:00,61.6,59.6,29.66,SSW,205,0.0,1.0,93,0.06,,---,0.54,VWS V14.01,2013-04-11 19:39:00,
2013-04-11 15:44:00,61.5,59.5,29.66,ESE,112,0.0,0.0,93,0.08,,---,0.56,VWS V14.01,2013-04-11 19:44:00,
2013-04-11 15:49:00,61.4,59.4,29.64,WNW,287,0.0,1.0,93,0.09,,---,0.57,VWS V14.01,2013-04-11 19:49:00,
2013-04-11 15:54:00,61.3,59.3,29.64,West,271,0.0,1.0,93,0.09,,---,0.58,VWS V14.01,2013-04-11 19:54:00,
2013-04-11 15:59:00,61.2,59.2,29.65,SSE,155,0.0,1.0,93,0.10,,---,0.59,VWS V14.01,2013-04-11 19:59:00,
2013-04-11 16:04:00,61.1,59.1,29.66,SSW,209,0.0,0.0,93,0.11,,---,0.60,VWS V14.01,2013-04-11 20:04:00,
2013-04-11 16:09:00,61.0,59.3,29.65,NW,306,2.0,2.0,94,0.13,,---,0.62,VWS V14.01,2013-04-11 20:09:00,
2013-04-11 16:14:00,60.9,59.2,29.64,WNW,291,0.0,0.0,94,0.16,,---,0.65,VWS V14.01,2013-04-11 20:14:00,
2013-04-11 16:19:00,60.8,59.1,29.64,WSW,249,0.0,0.0,94,0.18,,---,0.67,VWS V14.01,2013-04-11 20:19:00,
2013-04-11 16:24:00,60.8,59.1,29.64,SW,228,0.0,0.0,94,0.20,,---,0.69,VWS V14.01,2013-04-11 20:24:00,
2013-04-11 16:29:00,60.7,59.0,29.64,SE,133,0.0,0.0,94,0.20,,---,0.70,VWS V14.01,2013-04-11 20:29:00,
2013-04-11 16:34:00,60.7,59.0,29.63,SSE,147,0.0,0.0,94,0.21,,---,0.72,VWS V14.01,2013-04-11 20:34:00,
2013-04-11 16:39:00,60.7,59.0,29.63,West,261,0.0,0.0,94,0.21,,---,0.74,VWS V14.01,2013-04-11 20:39:00,
2013-04-11 16:44:00,60.7,59.3,29.63,West,261,0.0,0.0,95,0.19,,---,0.75,VWS V14.01,2013-04-11 20:44:00,
2013-04-11 16:49:00,60.7,59.3,29.62,West,259,0.0,0.0,95,0.19,,---,0.76,VWS V14.01,2013-04-11 20:49:00,
2013-04-11 16:54:00,60.7,59.3,29.63,West,259,0.0,0.0,95,0.19,,---,0.77,VWS V14.01,2013-04-11 20:54:00,
2013-04-11 16:59:00,60.6,59.2,29.63,West,259,0.0,0.0,95,0.20,,---,0.79,VWS V14.01,2013-04-11 20:59:00,
2013-04-11 17:04:00,60.6,59.2,29.63,WSW,254,0.0,0.0,95,0.19,,---,0.79,VWS V14.01,2013-04-11 21:04:00,
2013-04-11 17:09:00,60.5,59.1,29.63,SW,228,0.0,0.0,95,0.18,,---,0.80,VWS V14.01,2013-04-11 21:09:00,
2013-04-11 17:14:00,60.4,59.0,29.64,SW,218,0.0,0.0,95,0.18,,---,0.82,VWS V14.01,2013-04-11 21:14:00,
2013-04-11 17:19:00,60.4,59.0,29.64,South,191,0.0,0.0,95,0.17,,---,0.84,VWS V14.01,2013-04-11 21:19:00,
2013-04-11 17:24:00,60.3,58.9,29.64,SE,138,0.0,0.0,95,0.20,,---,0.88,VWS V14.01,2013-04-11 21:24:00,
2013-04-11 17:29:00,60.3,58.9,29.63,SSW,208,0.0,0.0,95,0.20,,---,0.90,VWS V14.01,2013-04-11 21:29:00,
2013-04-11 17:34:00,60.1,58.7,29.63,ESE,121,0.0,0.0,95,0.20,,---,0.92,VWS V14.01,2013-04-11 21:34:00,
2013-04-11 17:39:00,60.1,58.7,29.63,WSW,249,0.0,0.0,95,0.19,,---,0.93,VWS V14.01,2013-04-11 21:39:00,
2013-04-11 17:44:00,60.0,58.6,29.63,WSW,245,0.0,0.0,95,0.19,,---,0.94,VWS V14.01,2013-04-11 21:44:00,
2013-04-11 17:49:00,60.0,58.6,29.63,WSW,245,0.0,0.0,95,0.18,,---,0.94,VWS V14.01,2013-04-11 21:49:00,
2013-04-11 17:54:00,59.9,58.5,29.64,East,93,0.0,0.0,95,0.18,,---,0.95,VWS V14.01,2013-04-11 21:54:00,
2013-04-11 17:59:00,59.9,58.5,29.64,East,94,0.0,0.0,95,0.17,,---,0.96,VWS V14.01,2013-04-11 21:59:00,
2013-04-11 18:04:00,59.8,58.4,29.64,ESE,122,0.0,0.0,95,0.17,,---,0.96,VWS V14.01,2013-04-11 22:04:00,
2013-04-11 18:09:00,59.8,58.4,29.64,ESE,121,0.0,0.0,95,0.17,,---,0.97,VWS V14.01,2013-04-11 22:09:00,
2013-04-11 18:14:00,59.7,58.3,29.65,ESE,122,0.0,0.0,95,0.16,,---,0.98,VWS V14.01,2013-04-11 22:14:00,
2013-04-11 18:19:00,59.7,58.3,29.65,ESE,122,0.0,0.0,95,0.15,,---,0.99,VWS V14.01,2013-04-11 22:19:00,
2013-04-11 18:24:00,59.7,58.3,29.65,SW,226,0.0,0.0,95,0.13,,---,1.00,VWS V14.01,2013-04-11 22:24:00,
2013-04-11 18:29:00,59.5,58.1,29.65,SW,226,0.0,0.0,95,0.12,,---,1.02,VWS V14.01,2013-04-11 22:29:00,
2013-04-11 18:34:00,59.4,58.0,29.65,SW,224,0.0,0.0,95,0.13,,---,1.04,VWS V14.01,2013-04-11 22:34:00,
2013-04-11 18:39:00,59.4,58.0,29.64,SW,225,0.0,0.0,95,0.14,,---,1.06,VWS V14.01,2013-04-11 22:39:00,
2013-04-11 18:44:00,59.4,58.0,29.63,ENE,62,0.0,1.0,95,0.14,,---,1.07,VWS V14.01,2013-04-11 22:44:00,
2013-04-11 18:49:00,59.4,58.0,29.63,ENE,72,0.0,0.0,95,0.13,,---,1.07,VWS V14.01,2013-04-11 22:49:00,
2013-04-11 18:54:00,59.4,58.0,29.62,ENE,69,0.0,0.0,95,0.13,,---,1.08,VWS V14.01,2013-04-11 22:54:00,
2013-04-11 18:59:00,59.3,57.9,29.62,East,94,0.0,0.0,95,0.13,,---,1.09,VWS V14.01,2013-04-11 22:59:00,
2013-04-11 19:04:00,59.2,57.8,29.61,East,86,0.0,0.0,95,0.14,,---,1.10,VWS V14.01,2013-04-11 23:04:00,
2013-04-11 19:09:00,59.1,57.7,29.60,East,86,1.0,1.0,95,0.15,,---,1.12,VWS V14.01,2013-04-11 23:09:00,
2013-04-11 19:14:00,58.8,57.4,29.58,East,91,2.0,2.0,95,0.16,,---,1.13,VWS V14.01,2013-04-11 23:14:00,
2013-04-11 19:19:00,58.7,57.3,29.58,ESE,102,2.0,4.0,95,0.15,,---,1.14,VWS V14.01,2013-04-11 23:19:00,
2013-04-11 19:24:00,58.6,57.2,29.57,ESE,106,2.0,5.0,95,0.15,,---,1.15,VWS V14.01,2013-04-11 23:24:00,
2013-04-11 19:28:00,58.5,57.1,29.57,SE,136,3.0,6.0,95,0.13,,---,1.15,VWS V14.01,2013-04-11 23:28:00,
2013-04-11 19:33:00,58.4,57.0,29.56,ENE,63,5.0,5.0,95,0.11,,---,1.15,VWS V14.01,2013-04-11 23:33:00,
2013-04-11 19:39:00,58.4,57.0,29.56,East,93,3.0,3.0,95,0.09,,---,1.15,VWS V14.01,2013-04-11 23:39:00,
2013-04-11 19:43:00,58.3,56.9,29.55,ESE,102,4.0,6.0,95,0.08,,---,1.15,VWS V14.01,2013-04-11 23:43:00,
2013-04-11 19:48:00,58.3,56.9,29.55,East,82,5.0,5.0,95,0.08,,---,1.15,VWS V14.01,2013-04-11 23:48:00,
2013-04-11 19:53:00,58.2,56.8,29.54,ESE,107,6.0,8.0,95,0.07,,---,1.15,VWS V14.01,2013-04-11 23:53:00,
2013-04-11 19:58:00,58.2,56.8,29.52,SE,125,6.0,10.0,95,0.06,,---,1.15,VWS V14.01,2013-04-11 23:58:00,
2013-04-11 20:03:00,58.2,56.5,29.52,ENE,74,3.0,7.0,94,0.06,,---,1.16,VWS V14.01,2013-04-12 00:03:00,
2013-04-11 20:08:00,58.2,56.5,29.52,East,90,4.0,5.0,94,0.05,,---,1.16,VWS V14.01,2013-04-12 00:08:00,
2013-04-11 20:13:00,58.1,56.4,29.53,SE,131,4.0,5.0,94,0.03,,---,1.16,VWS V14.01,2013-04-12 00:13:00,
2013-04-11 20:18:00,58.1,56.4,29.53,SSE,165,1.0,2.0,94,0.02,,---,1.16,VWS V14.01,2013-04-12 00:18:00,
2013-04-11 20:23:00,58.0,56.3,29.55,SSE,166,0.0,0.0,94,0.01,,---,1.16,VWS V14.01,2013-04-12 00:23:00,
2013-04-11 20:28:00,58.0,56.3,29.55,SE,132,0.0,0.0,94,0.01,,---,1.16,VWS V14.01,2013-04-12 00:28:00,
2013-04-11 20:33:00,57.9,56.2,29.54,East,98,2.0,3.0,94,0.01,,---,1.16,VWS V14.01,2013-04-12 00:33:00,
2013-04-11 20:38:00,57.9,56.2,29.53,East,93,0.0,0.0,94,0.01,,---,1.16,VWS V14.01,2013-04-12 00:38:00,
2013-04-11 20:43:00,57.9,56.2,29.54,SE,145,0.0,0.0,94,0.01,,---,1.16,VWS V14.01,2013-04-12 00:43:00,
2013-04-11 20:48:00,57.8,56.1,29.55,West,271,0.0,0.0,94,0.01,,---,1.16,VWS V14.01,2013-04-12 00:48:00,
2013-04-11 20:53:00,57.8,56.1,29.55,West,270,0.0,0.0,94,0.01,,---,1.16,VWS V14.01,2013-04-12 00:53:00,
2013-04-11 20:58:00,57.7,56.0,29.56,SW,216,0.0,0.0,94,0.01,,---,1.16,VWS V14.01,2013-04-12 00:58:00,
2013-04-11 21:03:00,57.7,56.0,29.56,ESE,108,0.0,0.0,94,0.00,,---,1.16,VWS V14.01,2013-04-12 01:03:00,
2013-04-11 21:08:00,57.6,56.2,29.56,ESE,109,0.0,0.0,95,0.00,,---,1.16,VWS V14.01,2013-04-12 01:08:00,
2013-04-11 21:13:00,57.6,56.2,29.57,ESE,108,0.0,0.0,95,0.00,,---,1.16,VWS V14.01,2013-04-12 01:13:00,
2013-04-11 21:18:00,57.5,56.1,29.56,ESE,108,0.0,0.0,95,0.00,,---,1.16,VWS V14.01,2013-04-12 01:18:00,
2013-04-11 21:23:00,57.5,56.1,29.56,ESE,108,0.0,0.0,95,0.00,,---,1.16,VWS V14.01,2013-04-12 01:23:00,
2013-04-11 21:28:00,57.5,56.1,29.57,ESE,108,0.0,0.0,95,0.00,,---,1.16,VWS V14.01,2013-04-12 01:28:00,
2013-04-11 21:33:00,57.5,56.1,29.58,SW,216,0.0,0.0,95,0.00,,---,1.16,VWS V14.01,2013-04-12 01:33:00,
2013-04-11 21:38:00,57.5,56.1,29.57,SE,124,0.0,0.0,95,0.00,,---,1.16,VWS V14.01,2013-04-12 01:38:00,
2013-04-11 21:43:00,57.5,56.1,29.57,SSE,157,0.0,0.0,95,0.00,,---,1.16,VWS V14.01,2013-04-12 01:43:00,
2013-04-11 21:48:00,57.5,56.1,29.58,SSE,157,0.0,0.0,95,0.00,,---,1.16,VWS V14.01,2013-04-12 01:48:00,
2013-04-11 21:53:00,57.5,56.1,29.57,WSW,245,0.0,0.0,95,0.00,,---,1.16,VWS V14.01,2013-04-12 01:53:00,
2013-04-11 21:58:00,57.5,56.1,29.57,East,87,0.0,0.0,95,0.00,,---,1.16,VWS V14.01,2013-04-12 01:58:00,
2013-04-11 22:03:00,57.4,56.0,29.58,WNW,292,0.0,0.0,95,0.01,,---,1.17,VWS V14.01,2013-04-12 02:03:00,
2013-04-11 22:08:00,57.4,56.0,29.58,East,88,0.0,0.0,95,0.01,,---,1.17,VWS V14.01,2013-04-12 02:08:00,
2013-04-11 22:13:00,57.4,56.3,29.58,East,89,0.0,0.0,96,0.01,,---,1.17,VWS V14.01,2013-04-12 02:13:00,
2013-04-11 22:18:00,57.4,56.3,29.58,SW,225,0.0,0.0,96,0.01,,---,1.17,VWS V14.01,2013-04-12 02:18:00,
2013-04-11 22:23:00,57.4,56.3,29.57,SSE,166,0.0,0.0,96,0.01,,---,1.17,VWS V14.01,2013-04-12 02:23:00,
2013-04-11 22:28:00,57.4,56.3,29.57,WSW,243,0.0,0.0,96,0.01,,---,1.17,VWS V14.01,2013-04-12 02:28:00,
2013-04-11 22:33:00,57.3,56.2,29.58,SW,228,0.0,0.0,96,0.02,,---,1.18,VWS V14.01,2013-04-12 02:33:00,
2013-04-11 22:38:00,57.3,56.2,29.58,SW,228,0.0,0.0,96,0.03,,---,1.19,VWS V14.01,2013-04-12 02:38:00,
2013-04-11 22:43:00,57.4,56.3,29.58,WNW,292,0.0,1.0,96,0.04,,---,1.20,VWS V14.01,2013-04-12 02:43:00,
2013-04-11 22:48:00,57.1,55.7,29.58,WNW,301,4.0,7.0,95,0.07,,---,1.23,VWS V14.01,2013-04-12 02:48:00,
2013-04-11 22:53:00,55.9,54.2,29.58,WNW,285,2.0,7.0,94,0.10,,---,1.26,VWS V14.01,2013-04-12 02:53:00,
2013-04-11 22:58:00,55.3,53.6,29.59,WSW,239,6.0,8.0,94,0.10,,---,1.26,VWS V14.01,2013-04-12 02:58:00,
2013-04-11 23:03:00,54.9,53.2,29.59,West,261,6.0,6.0,94,0.10,,---,1.27,VWS V14.01,2013-04-12 03:03:00,
2013-04-11 23:08:00,54.3,52.6,29.59,WNW,298,2.0,5.0,94,0.10,,---,1.27,VWS V14.01,2013-04-12 03:08:00,
2013-04-11 23:13:00,53.8,52.1,29.58,West,261,1.0,6.0,94,0.11,,---,1.28,VWS V14.01,2013-04-12 03:13:00,
2013-04-11 23:18:00,53.5,51.8,29.58,WNW,295,3.0,5.0,94,0.11,,---,1.28,VWS V14.01,2013-04-12 03:18:00,
2013-04-11 23:23:00,53.3,51.9,29.58,WSW,249,4.0,4.0,95,0.11,,---,1.28,VWS V14.01,2013-04-12 03:23:00,
2013-04-11 23:28:00,53.1,51.7,29.58,West,266,4.0,5.0,95,0.12,,---,1.29,VWS V14.01,2013-04-12 03:28:00,
2013-04-11 23:33:00,52.9,51.5,29.59,WNW,299,5.0,5.0,95,0.11,,---,1.29,VWS V14.01,2013-04-12 03:33:00,
2013-04-11 23:38:00,52.7,51.3,29.59,WNW,295,3.0,7.0,95,0.12,,---,1.30,VWS V14.01,2013-04-12 03:38:00,
2013-04-11 23:43:00,52.5,51.1,29.59,WSW,246,2.0,6.0,95,0.11,,---,1.30,VWS V14.01,2013-04-12 03:43:00,
2013-04-11 23:48:00,52.4,51.0,29.60,West,273,3.0,6.0,95,0.10,,---,1.31,VWS V14.01,2013-04-12 03:48:00,
2013-04-11 23:53:00,52.3,50.9,29.59,WNW,299,2.0,2.0,95,0.05,,---,1.31,VWS V14.01,2013-04-12 03:53:00,
2013-04-11 23:58:00,52.2,50.8,29.60,WNW,288,3.0,6.0,95,0.06,,---,1.32,VWS V14.01,2013-04-12 03:58:00,